Wetterdaten: Montag, 06.03.2017
Datum Zeit Temp. A. Feuchte A. Luftdruck Regen Wind Richtung Richtung Sonnenschein ET UV Solar Taupunkt Windchill Windben Empfang
06.03.2017 00:00 1,6 C 93 % 1003,8 hPa 0,0 l/m 16,8 km/h (3 Bft) W-SW 253 0 min 0,000 mm 0,0 UV-I 0 W/m 0,6 C -6,0 C 20,9 km/h (4 Bft) 94,00 %
06.03.2017 00:02 1,8 C 93 % 1004,1 hPa 0,0 l/m 17,7 km/h (3 Bft) S-SW 213 0 min 0,000 mm 0,0 UV-I 0 W/m 0,8 C -6,2 C 17,7 km/h (3 Bft) 100,00 %
06.03.2017 00:04 1,9 C 92 % 1004,0 hPa 0,0 l/m 15,5 km/h (3 Bft) SW 229 0 min 0,000 mm 0,0 UV-I 0 W/m 0,7 C -5,0 C 20,9 km/h (4 Bft) 93,62 %
06.03.2017 00:06 2,1 C 92 % 1003,9 hPa 0,0 l/m 9,2 km/h (2 Bft) W-SW 248 0 min 0,000 mm 0,0 UV-I 0 W/m 0,9 C -0,5 C 16,1 km/h (3 Bft) 97,87 %
06.03.2017 00:08 2,1 C 92 % 1004,0 hPa 0,0 l/m 8,1 km/h (2 Bft) SW 223 0 min 0,000 mm 0,0 UV-I 0 W/m 0,9 C 0,5 C 12,9 km/h (3 Bft) 95,12 %
06.03.2017 00:10 2,1 C 91 % 1004,0 hPa 0,0 l/m 8,4 km/h (2 Bft) W-SW 244 0 min 0,000 mm 0,0 UV-I 0 W/m 0,8 C 0,2 C 12,9 km/h (3 Bft) 96,23 %
06.03.2017 00:12 2,1 C 91 % 1004,0 hPa 0,0 l/m 4,3 km/h (1 Bft) W-SW 245 0 min 0,000 mm 0,0 UV-I 0 W/m 0,8 C 2,1 C 8,0 km/h (2 Bft) 100,00 %
06.03.2017 00:14 2,2 C 91 % 1004,0 hPa 0,0 l/m 5,9 km/h (2 Bft) S-SW 207 0 min 0,000 mm 0,0 UV-I 0 W/m 0,9 C 2,2 C 9,7 km/h (2 Bft) 96,00 %
06.03.2017 00:16 2,2 C 91 % 1004,1 hPa 0,0 l/m 7,6 km/h (2 Bft) SW 235 0 min 0,000 mm 0,0 UV-I 0 W/m 0,9 C 1,0 C 12,9 km/h (3 Bft) 100,00 %
06.03.2017 00:18 2,2 C 91 % 1004,1 hPa 0,0 l/m 8,9 km/h (2 Bft) SW 234 0 min 0,000 mm 0,0 UV-I 0 W/m 0,9 C -0,1 C 12,9 km/h (3 Bft) 96,00 %
06.03.2017 00:20 2,3 C 91 % 1004,1 hPa 0,0 l/m 9,2 km/h (2 Bft) SW 221 0 min 0,000 mm 0,0 UV-I 0 W/m 1,0 C -0,3 C 14,5 km/h (3 Bft) 96,43 %
06.03.2017 00:22 2,2 C 91 % 1004,2 hPa 0,0 l/m 8,2 km/h (2 Bft) W-SW 238 0 min 0,000 mm 0,0 UV-I 0 W/m 0,9 C 0,5 C 12,9 km/h (3 Bft) 97,37 %
06.03.2017 00:24 2,3 C 91 % 1004,2 hPa 0,0 l/m 6,2 km/h (2 Bft) SW 214 0 min 0,000 mm 0,0 UV-I 0 W/m 1,0 C 2,3 C 9,7 km/h (2 Bft) 98,21 %
06.03.2017 00:26 2,3 C 91 % 1004,1 hPa 0,0 l/m 7,5 km/h (2 Bft) SW 233 0 min 0,000 mm 0,0 UV-I 0 W/m 1,0 C 1,2 C 11,3 km/h (2 Bft) 97,56 %
06.03.2017 00:28 2,3 C 91 % 1004,2 hPa 0,0 l/m 8,2 km/h (2 Bft) SW 236 0 min 0,000 mm 0,0 UV-I 0 W/m 1,0 C 0,6 C 12,9 km/h (3 Bft) 100,00 %
06.03.2017 00:30 2,3 C 91 % 1004,2 hPa 0,0 l/m 7,1 km/h (2 Bft) SW 229 0 min 0,000 mm 0,0 UV-I 0 W/m 1,0 C 1,6 C 11,3 km/h (2 Bft) 98,18 %
06.03.2017 00:32 2,4 C 91 % 1004,1 hPa 0,0 l/m 9,7 km/h (2 Bft) SW 229 0 min 0,000 mm 0,0 UV-I 0 W/m 1,1 C -0,6 C 14,5 km/h (3 Bft) 96,00 %
06.03.2017 00:34 2,4 C 91 % 1004,2 hPa 0,0 l/m 11,2 km/h (2 Bft) SW 229 0 min 0,000 mm 0,0 UV-I 0 W/m 1,1 C -1,7 C 14,5 km/h (3 Bft) 100,00 %
06.03.2017 00:36 2,5 C 91 % 1004,3 hPa 0,0 l/m 11,8 km/h (2 Bft) W-SW 238 0 min 0,000 mm 0,0 UV-I 0 W/m 1,2 C -2,0 C 16,1 km/h (3 Bft) 100,00 %
06.03.2017 00:38 2,5 C 91 % 1004,2 hPa 0,0 l/m 10,1 km/h (2 Bft) SW 229 0 min 0,000 mm 0,0 UV-I 0 W/m 1,2 C -0,8 C 14,5 km/h (3 Bft) 100,00 %
06.03.2017 00:40 2,6 C 90 % 1004,3 hPa 0,0 l/m 8,2 km/h (2 Bft) S-SW 205 0 min 0,000 mm 0,0 UV-I 0 W/m 1,1 C 0,9 C 11,3 km/h (2 Bft) 96,00 %
06.03.2017 00:42 2,6 C 90 % 1004,4 hPa 0,0 l/m 9,7 km/h (2 Bft) S-SW 206 0 min 0,000 mm 0,0 UV-I 0 W/m 1,1 C -0,3 C 12,9 km/h (3 Bft) 98,00 %
06.03.2017 00:44 2,7 C 91 % 1004,4 hPa 0,0 l/m 8,5 km/h (2 Bft) S-SW 205 0 min 0,000 mm 0,0 UV-I 0 W/m 1,4 C 0,7 C 12,9 km/h (3 Bft) 97,14 %
06.03.2017 00:46 2,7 C 91 % 1004,3 hPa 0,0 l/m 7,2 km/h (2 Bft) SW 232 0 min 0,000 mm 0,0 UV-I 0 W/m 1,4 C 1,9 C 9,7 km/h (2 Bft) 100,00 %
06.03.2017 00:48 2,7 C 91 % 1004,3 hPa 0,0 l/m 7,7 km/h (2 Bft) S 189 0 min 0,000 mm 0,0 UV-I 0 W/m 1,4 C 1,5 C 12,9 km/h (3 Bft) 97,87 %
06.03.2017 00:50 2,8 C 91 % 1004,3 hPa 0,0 l/m 6,5 km/h (2 Bft) SW 223 0 min 0,000 mm 0,0 UV-I 0 W/m 1,5 C 2,7 C 9,7 km/h (2 Bft) 98,00 %
06.03.2017 00:52 2,8 C 91 % 1004,2 hPa 0,2 l/m 6,2 km/h (2 Bft) SW 215 0 min 0,000 mm 0,0 UV-I 0 W/m 1,5 C 2,8 C 11,3 km/h (2 Bft) 97,37 %
06.03.2017 00:54 2,8 C 90 % 1004,2 hPa 0,0 l/m 5,2 km/h (1 Bft) SW 229 0 min 0,000 mm 0,0 UV-I 0 W/m 1,3 C 2,8 C 8,0 km/h (2 Bft) 98,21 %
06.03.2017 00:56 2,9 C 90 % 1004,2 hPa 0,0 l/m 6,0 km/h (2 Bft) S-SW 211 0 min 0,000 mm 0,0 UV-I 0 W/m 1,4 C 2,9 C 8,0 km/h (2 Bft) 97,87 %
06.03.2017 00:58 2,9 C 90 % 1004,3 hPa 0,0 l/m 5,2 km/h (1 Bft) S-SW 206 0 min 0,000 mm 0,0 UV-I 0 W/m 1,4 C 2,9 C 8,0 km/h (2 Bft) 94,74 %
06.03.2017 01:00 2,9 C 90 % 1004,3 hPa 0,0 l/m 4,5 km/h (1 Bft) S-SW 200 0 min 0,000 mm 0,0 UV-I 0 W/m 1,4 C 2,9 C 8,0 km/h (2 Bft) 95,74 %
06.03.2017 01:02 2,9 C 90 % 1004,3 hPa 0,0 l/m 2,2 km/h (1 Bft) S 188 0 min 0,000 mm 0,0 UV-I 0 W/m 1,4 C 2,9 C 6,4 km/h (2 Bft) 96,23 %
06.03.2017 01:04 2,9 C 90 % 1004,3 hPa 0,0 l/m 3,2 km/h (1 Bft) S 172 0 min 0,000 mm 0,0 UV-I 0 W/m 1,4 C 2,9 C 8,0 km/h (2 Bft) 93,62 %
06.03.2017 01:06 3,0 C 90 % 1004,3 hPa 0,0 l/m 5,1 km/h (1 Bft) S-SO 165 0 min 0,000 mm 0,0 UV-I 0 W/m 1,5 C 3,0 C 9,7 km/h (2 Bft) 98,00 %
06.03.2017 01:08 3,0 C 90 % 1004,3 hPa 0,0 l/m 5,1 km/h (1 Bft) S 182 0 min 0,000 mm 0,0 UV-I 0 W/m 1,5 C 3,0 C 9,7 km/h (2 Bft) 97,56 %
06.03.2017 01:10 3,1 C 90 % 1004,3 hPa 0,0 l/m 5,7 km/h (1 Bft) S-SW 192 0 min 0,000 mm 0,0 UV-I 0 W/m 1,6 C 3,1 C 9,7 km/h (2 Bft) 98,00 %
06.03.2017 01:12 3,1 C 90 % 1004,4 hPa 0,0 l/m 5,7 km/h (1 Bft) S-SW 202 0 min 0,000 mm 0,0 UV-I 0 W/m 1,6 C 3,1 C 9,7 km/h (2 Bft) 92,00 %
06.03.2017 01:14 3,1 C 90 % 1004,4 hPa 0,0 l/m 6,4 km/h (2 Bft) S 169 0 min 0,000 mm 0,0 UV-I 0 W/m 1,6 C 3,1 C 11,3 km/h (2 Bft) 97,22 %
06.03.2017 01:16 3,1 C 90 % 1004,4 hPa 0,0 l/m 6,2 km/h (2 Bft) S-SO 166 0 min 0,000 mm 0,0 UV-I 0 W/m 1,6 C 3,1 C 9,7 km/h (2 Bft) 94,34 %
06.03.2017 01:18 3,2 C 90 % 1004,4 hPa 0,0 l/m 6,9 km/h (2 Bft) S-SW 210 0 min 0,000 mm 0,0 UV-I 0 W/m 1,7 C 2,7 C 11,3 km/h (2 Bft) 97,87 %
06.03.2017 01:20 3,2 C 89 % 1004,4 hPa 0,0 l/m 5,9 km/h (2 Bft) S-SW 194 0 min 0,000 mm 0,0 UV-I 0 W/m 1,6 C 3,2 C 9,7 km/h (2 Bft) 96,00 %
06.03.2017 01:22 3,3 C 89 % 1004,4 hPa 0,0 l/m 6,3 km/h (2 Bft) S-SW 202 0 min 0,000 mm 0,0 UV-I 0 W/m 1,7 C 3,3 C 8,0 km/h (2 Bft) 94,74 %
06.03.2017 01:24 3,3 C 89 % 1004,5 hPa 0,0 l/m 7,2 km/h (2 Bft) S-SW 201 0 min 0,000 mm 0,0 UV-I 0 W/m 1,7 C 2,5 C 12,9 km/h (3 Bft) 96,23 %
06.03.2017 01:26 3,3 C 89 % 1004,6 hPa 0,0 l/m 7,4 km/h (2 Bft) SW 224 0 min 0,000 mm 0,0 UV-I 0 W/m 1,7 C 2,4 C 12,9 km/h (3 Bft) 95,12 %
06.03.2017 01:28 3,3 C 89 % 1004,6 hPa 0,0 l/m 7,8 km/h (2 Bft) S-SW 194 0 min 0,000 mm 0,0 UV-I 0 W/m 1,7 C 2,0 C 9,7 km/h (2 Bft) 96,23 %
06.03.2017 01:30 3,3 C 89 % 1004,6 hPa 0,0 l/m 6,6 km/h (2 Bft) S-SW 205 0 min 0,000 mm 0,0 UV-I 0 W/m 1,7 C 3,1 C 9,7 km/h (2 Bft) 95,12 %
06.03.2017 01:32 3,3 C 89 % 1004,6 hPa 0,0 l/m 5,7 km/h (1 Bft) S-SW 202 0 min 0,000 mm 0,0 UV-I 0 W/m 1,7 C 3,3 C 9,7 km/h (2 Bft) 93,62 %
06.03.2017 01:34 3,3 C 89 % 1004,6 hPa 0,0 l/m 6,2 km/h (2 Bft) SW 224 0 min 0,000 mm 0,0 UV-I 0 W/m 1,7 C 3,3 C 8,0 km/h (2 Bft) 98,11 %
06.03.2017 01:36 3,4 C 89 % 1004,7 hPa 0,0 l/m 5,6 km/h (1 Bft) S 186 0 min 0,000 mm 0,0 UV-I 0 W/m 1,8 C 3,4 C 8,0 km/h (2 Bft) 96,00 %
06.03.2017 01:38 3,4 C 89 % 1004,7 hPa 0,0 l/m 5,9 km/h (2 Bft) S-SW 195 0 min 0,000 mm 0,0 UV-I 0 W/m 1,8 C 3,4 C 8,0 km/h (2 Bft) 95,45 %
06.03.2017 01:40 3,4 C 89 % 1004,7 hPa 0,0 l/m 6,4 km/h (2 Bft) S-SW 200 0 min 0,000 mm 0,0 UV-I 0 W/m 1,8 C 3,4 C 9,7 km/h (2 Bft) 92,68 %
06.03.2017 01:42 3,5 C 89 % 1004,7 hPa 0,0 l/m 5,1 km/h (1 Bft) S 188 0 min 0,000 mm 0,0 UV-I 0 W/m 1,9 C 3,5 C 8,0 km/h (2 Bft) 95,74 %
06.03.2017 01:44 3,6 C 89 % 1004,7 hPa 0,0 l/m 6,1 km/h (2 Bft) S-SW 199 0 min 0,000 mm 0,0 UV-I 0 W/m 2,0 C 3,6 C 9,7 km/h (2 Bft) 93,18 %
06.03.2017 01:46 3,6 C 89 % 1004,8 hPa 0,0 l/m 4,6 km/h (1 Bft) S-SW 206 0 min 0,000 mm 0,0 UV-I 0 W/m 2,0 C 3,6 C 8,0 km/h (2 Bft) 92,45 %
06.03.2017 01:48 3,6 C 88 % 1004,8 hPa 0,0 l/m 6,0 km/h (2 Bft) SW 223 0 min 0,000 mm 0,0 UV-I 0 W/m 1,8 C 3,6 C 8,0 km/h (2 Bft) 97,44 %
06.03.2017 01:50 3,7 C 88 % 1004,7 hPa 0,0 l/m 5,2 km/h (1 Bft) SW 230 0 min 0,000 mm 0,0 UV-I 0 W/m 1,9 C 3,7 C 9,7 km/h (2 Bft) 94,23 %
06.03.2017 01:52 3,7 C 88 % 1004,7 hPa 0,0 l/m 5,9 km/h (2 Bft) S-SW 207 0 min 0,000 mm 0,0 UV-I 0 W/m 1,9 C 3,7 C 9,7 km/h (2 Bft) 88,68 %
06.03.2017 01:54 3,8 C 88 % 1004,7 hPa 0,0 l/m 4,9 km/h (1 Bft) S 180 0 min 0,000 mm 0,0 UV-I 0 W/m 2,0 C 3,8 C 8,0 km/h (2 Bft) 97,44 %
06.03.2017 01:56 3,8 C 88 % 1004,7 hPa 0,0 l/m 3,8 km/h (1 Bft) S-SW 209 0 min 0,000 mm 0,0 UV-I 0 W/m 2,0 C 3,8 C 8,0 km/h (2 Bft) 93,62 %
06.03.2017 01:58 3,8 C 88 % 1004,6 hPa 0,0 l/m 5,3 km/h (1 Bft) SW 218 0 min 0,000 mm 0,0 UV-I 0 W/m 2,0 C 3,8 C 8,0 km/h (2 Bft) 94,64 %
06.03.2017 02:00 3,8 C 88 % 1004,6 hPa 0,0 l/m 5,2 km/h (1 Bft) SW 227 0 min 0,000 mm 0,0 UV-I 0 W/m 2,0 C 3,8 C 8,0 km/h (2 Bft) 94,74 %
06.03.2017 02:02 3,8 C 88 % 1004,7 hPa 0,0 l/m 4,4 km/h (1 Bft) S-SW 208 0 min 0,000 mm 0,0 UV-I 0 W/m 2,0 C 3,8 C 6,4 km/h (2 Bft) 92,45 %
06.03.2017 02:04 3,9 C 87 % 1004,7 hPa 0,0 l/m 6,4 km/h (2 Bft) S 189 0 min 0,000 mm 0,0 UV-I 0 W/m 1,9 C 3,9 C 9,7 km/h (2 Bft) 93,62 %
06.03.2017 02:06 3,9 C 88 % 1004,7 hPa 0,0 l/m 5,6 km/h (1 Bft) S-SW 209 0 min 0,000 mm 0,0 UV-I 0 W/m 2,1 C 3,9 C 8,0 km/h (2 Bft) 94,00 %
06.03.2017 02:08 4,0 C 87 % 1004,8 hPa 0,0 l/m 7,6 km/h (2 Bft) SW 223 0 min 0,000 mm 0,0 UV-I 0 W/m 2,0 C 2,9 C 11,3 km/h (2 Bft) 95,12 %
06.03.2017 02:10 4,1 C 87 % 1004,7 hPa 0,0 l/m 7,6 km/h (2 Bft) S-SW 200 0 min 0,000 mm 0,0 UV-I 0 W/m 2,1 C 3,0 C 12,9 km/h (3 Bft) 92,68 %
06.03.2017 02:12 4,1 C 87 % 1004,7 hPa 0,0 l/m 4,9 km/h (1 Bft) SW 223 0 min 0,000 mm 0,0 UV-I 0 W/m 2,1 C 4,1 C 9,7 km/h (2 Bft) 91,53 %
06.03.2017 02:14 4,2 C 86 % 1004,7 hPa 0,0 l/m 5,9 km/h (2 Bft) W-SW 237 0 min 0,000 mm 0,0 UV-I 0 W/m 2,1 C 4,2 C 9,7 km/h (2 Bft) 94,74 %
06.03.2017 02:16 4,3 C 86 % 1004,7 hPa 0,0 l/m 6,1 km/h (2 Bft) SW 220 0 min 0,000 mm 0,0 UV-I 0 W/m 2,2 C 4,3 C 8,0 km/h (2 Bft) 100,00 %
06.03.2017 02:18 4,3 C 86 % 1004,7 hPa 0,0 l/m 4,4 km/h (1 Bft) SW 234 0 min 0,000 mm 0,0 UV-I 0 W/m 2,2 C 4,3 C 6,4 km/h (2 Bft) 96,00 %
06.03.2017 02:20 4,3 C 86 % 1004,7 hPa 0,0 l/m 8,2 km/h (2 Bft) SW 228 0 min 0,000 mm 0,0 UV-I 0 W/m 2,2 C 2,7 C 11,3 km/h (2 Bft) 97,56 %
06.03.2017 02:22 4,3 C 86 % 1004,7 hPa 0,0 l/m 6,7 km/h (2 Bft) SW 217 0 min 0,000 mm 0,0 UV-I 0 W/m 2,2 C 4,0 C 11,3 km/h (2 Bft) 92,00 %
06.03.2017 02:24 4,3 C 86 % 1004,7 hPa 0,0 l/m 9,0 km/h (2 Bft) SW 236 0 min 0,000 mm 0,0 UV-I 0 W/m 2,2 C 2,1 C 14,5 km/h (3 Bft) 98,11 %
06.03.2017 02:26 4,3 C 86 % 1004,7 hPa 0,0 l/m 9,3 km/h (2 Bft) W-SW 255 0 min 0,000 mm 0,0 UV-I 0 W/m 2,2 C 1,8 C 17,7 km/h (3 Bft) 100,00 %
06.03.2017 02:28 4,4 C 86 % 1004,7 hPa 0,0 l/m 8,5 km/h (2 Bft) W 262 0 min 0,000 mm 0,0 UV-I 0 W/m 2,3 C 2,6 C 12,9 km/h (3 Bft) 94,64 %
06.03.2017 02:30 4,4 C 85 % 1004,7 hPa 0,0 l/m 8,0 km/h (2 Bft) SW 226 0 min 0,000 mm 0,0 UV-I 0 W/m 2,1 C 3,0 C 14,5 km/h (3 Bft) 97,44 %
06.03.2017 02:32 4,4 C 85 % 1004,7 hPa 0,0 l/m 9,6 km/h (2 Bft) S-SW 213 0 min 0,000 mm 0,0 UV-I 0 W/m 2,1 C 1,7 C 14,5 km/h (3 Bft) 100,00 %
06.03.2017 02:34 4,4 C 85 % 1004,7 hPa 0,0 l/m 11,8 km/h (2 Bft) SW 226 0 min 0,000 mm 0,0 UV-I 0 W/m 2,1 C 0,2 C 19,3 km/h (3 Bft) 97,44 %
06.03.2017 02:36 4,4 C 85 % 1004,6 hPa 0,0 l/m 11,7 km/h (2 Bft) W-SW 238 0 min 0,000 mm 0,0 UV-I 0 W/m 2,1 C 0,3 C 16,1 km/h (3 Bft) 100,00 %
06.03.2017 02:38 4,4 C 85 % 1004,6 hPa 0,0 l/m 9,7 km/h (2 Bft) W-SW 248 0 min 0,000 mm 0,0 UV-I 0 W/m 2,1 C 1,6 C 16,1 km/h (3 Bft) 97,56 %
06.03.2017 02:40 4,5 C 85 % 1004,6 hPa 0,0 l/m 7,0 km/h (2 Bft) SW 215 0 min 0,000 mm 0,0 UV-I 0 W/m 2,2 C 4,0 C 11,3 km/h (2 Bft) 98,21 %
06.03.2017 02:42 4,5 C 84 % 1004,6 hPa 0,0 l/m 8,5 km/h (2 Bft) S-SW 201 0 min 0,000 mm 0,0 UV-I 0 W/m 2,0 C 2,7 C 11,3 km/h (2 Bft) 100,00 %
06.03.2017 02:44 4,6 C 84 % 1004,6 hPa 0,0 l/m 10,0 km/h (2 Bft) W-SW 243 0 min 0,000 mm 0,0 UV-I 0 W/m 2,1 C 1,6 C 12,9 km/h (3 Bft) 98,11 %
06.03.2017 02:46 4,6 C 84 % 1004,6 hPa 0,0 l/m 8,8 km/h (2 Bft) S-SW 200 0 min 0,000 mm 0,0 UV-I 0 W/m 2,1 C 2,5 C 14,5 km/h (3 Bft) 100,00 %
06.03.2017 02:48 4,5 C 84 % 1004,6 hPa 0,0 l/m 9,0 km/h (2 Bft) SW 231 0 min 0,000 mm 0,0 UV-I 0 W/m 2,0 C 2,3 C 14,5 km/h (3 Bft) 100,00 %
06.03.2017 02:50 4,5 C 84 % 1004,5 hPa 0,0 l/m 9,2 km/h (2 Bft) SW 228 0 min 0,000 mm 0,0 UV-I 0 W/m 2,0 C 2,1 C 12,9 km/h (3 Bft) 100,00 %
06.03.2017 02:52 4,4 C 84 % 1004,6 hPa 0,0 l/m 7,3 km/h (2 Bft) SW 227 0 min 0,000 mm 0,0 UV-I 0 W/m 1,9 C 3,6 C 12,9 km/h (3 Bft) 98,00 %
06.03.2017 02:54 4,4 C 84 % 1004,6 hPa 0,0 l/m 8,1 km/h (2 Bft) SW 234 0 min 0,000 mm 0,0 UV-I 0 W/m 1,9 C 2,9 C 12,9 km/h (3 Bft) 97,37 %
06.03.2017 02:56 4,4 C 84 % 1004,5 hPa 0,0 l/m 8,8 km/h (2 Bft) W-SW 245 0 min 0,000 mm 0,0 UV-I 0 W/m 1,9 C 2,3 C 12,9 km/h (3 Bft) 100,00 %
06.03.2017 02:58 4,4 C 84 % 1004,5 hPa 0,0 l/m 9,8 km/h (2 Bft) W-SW 238 0 min 0,000 mm 0,0 UV-I 0 W/m 1,9 C 1,6 C 12,9 km/h (3 Bft) 96,23 %
06.03.2017 03:00 4,3 C 84 % 1004,5 hPa 0,0 l/m 10,0 km/h (2 Bft) S-SW 212 0 min 0,025 mm 0,0 UV-I 0 W/m 1,8 C 1,3 C 12,9 km/h (3 Bft) 95,74 %
06.03.2017 03:02 4,3 C 84 % 1004,6 hPa 0,0 l/m 9,3 km/h (2 Bft) SW 228 0 min 0,000 mm 0,0 UV-I 0 W/m 1,8 C 1,8 C 14,5 km/h (3 Bft) 98,00 %
06.03.2017 03:04 4,3 C 85 % 1004,6 hPa 0,0 l/m 9,1 km/h (2 Bft) W-SW 247 0 min 0,000 mm 0,0 UV-I 0 W/m 2,0 C 2,0 C 12,9 km/h (3 Bft) 97,56 %
06.03.2017 03:06 4,3 C 85 % 1004,6 hPa 0,0 l/m 8,1 km/h (2 Bft) W-SW 247 0 min 0,000 mm 0,0 UV-I 0 W/m 2,0 C 2,8 C 12,9 km/h (3 Bft) 98,00 %
06.03.2017 03:08 4,2 C 85 % 1004,6 hPa 0,0 l/m 7,0 km/h (2 Bft) W-SW 239 0 min 0,000 mm 0,0 UV-I 0 W/m 1,9 C 3,7 C 9,7 km/h (2 Bft) 97,73 %
06.03.2017 03:10 4,2 C 85 % 1004,6 hPa 0,0 l/m 7,5 km/h (2 Bft) SW 222 0 min 0,000 mm 0,0 UV-I 0 W/m 1,9 C 3,2 C 12,9 km/h (3 Bft) 100,00 %
06.03.2017 03:12 4,2 C 85 % 1004,7 hPa 0,0 l/m 7,3 km/h (2 Bft) SW 232 0 min 0,000 mm 0,0 UV-I 0 W/m 1,9 C 3,4 C 12,9 km/h (3 Bft) 98,11 %
06.03.2017 03:14 4,2 C 85 % 1004,7 hPa 0,0 l/m 6,4 km/h (2 Bft) SW 225 0 min 0,000 mm 0,0 UV-I 0 W/m 1,9 C 4,2 C 11,3 km/h (2 Bft) 97,44 %
06.03.2017 03:16 4,2 C 85 % 1004,8 hPa 0,0 l/m 6,2 km/h (2 Bft) SW 232 0 min 0,000 mm 0,0 UV-I 0 W/m 1,9 C 4,2 C 11,3 km/h (2 Bft) 100,00 %
06.03.2017 03:18 4,2 C 85 % 1004,8 hPa 0,0 l/m 6,2 km/h (2 Bft) SW 227 0 min 0,000 mm 0,0 UV-I 0 W/m 1,9 C 4,2 C 8,0 km/h (2 Bft) 98,28 %
06.03.2017 03:20 4,2 C 85 % 1004,8 hPa 0,0 l/m 9,2 km/h (2 Bft) W-SW 243 0 min 0,000 mm 0,0 UV-I 0 W/m 1,9 C 1,8 C 11,3 km/h (2 Bft) 94,87 %
06.03.2017 03:22 4,3 C 85 % 1005,0 hPa 0,0 l/m 10,2 km/h (2 Bft) SW 236 0 min 0,000 mm 0,0 UV-I 0 W/m 2,0 C 1,2 C 14,5 km/h (3 Bft) 97,56 %
06.03.2017 03:24 4,3 C 85 % 1005,0 hPa 0,0 l/m 10,8 km/h (2 Bft) SW 227 0 min 0,000 mm 0,0 UV-I 0 W/m 2,0 C 0,7 C 16,1 km/h (3 Bft) 96,43 %
06.03.2017 03:26 4,3 C 85 % 1005,0 hPa 0,0 l/m 8,1 km/h (2 Bft) W-SW 246 0 min 0,000 mm 0,0 UV-I 0 W/m 2,0 C 2,8 C 16,1 km/h (3 Bft) 97,37 %
06.03.2017 03:28 4,3 C 85 % 1005,1 hPa 0,0 l/m 12,6 km/h (3 Bft) SW 217 0 min 0,000 mm 0,0 UV-I 0 W/m 2,0 C -0,4 C 19,3 km/h (3 Bft) 100,00 %
06.03.2017 03:30 4,4 C 85 % 1005,2 hPa 0,0 l/m 13,1 km/h (3 Bft) SW 215 0 min 0,000 mm 0,0 UV-I 0 W/m 2,1 C -0,6 C 17,7 km/h (3 Bft) 98,00 %
06.03.2017 03:32 4,4 C 85 % 1005,2 hPa 0,0 l/m 11,6 km/h (2 Bft) S-SW 196 0 min 0,000 mm 0,0 UV-I 0 W/m 2,1 C 0,3 C 19,3 km/h (3 Bft) 100,00 %
06.03.2017 03:34 4,4 C 85 % 1005,2 hPa 0,0 l/m 13,9 km/h (3 Bft) W-SW 243 0 min 0,000 mm 0,0 UV-I 0 W/m 2,1 C -1,1 C 20,9 km/h (4 Bft) 95,65 %
06.03.2017 03:36 4,6 C 86 % 1005,2 hPa 0,0 l/m 18,9 km/h (3 Bft) W-SW 253 0 min 0,000 mm 0,0 UV-I 0 W/m 2,5 C -3,2 C 29,0 km/h (5 Bft) 98,53 %
06.03.2017 03:38 4,6 C 87 % 1005,2 hPa 0,0 l/m 18,7 km/h (3 Bft) W 279 0 min 0,000 mm 0,0 UV-I 0 W/m 2,6 C -3,2 C 27,4 km/h (4 Bft) 97,73 %
06.03.2017 03:40 4,7 C 87 % 1005,2 hPa 0,0 l/m 22,0 km/h (4 Bft) W-SW 255 0 min 0,000 mm 0,0 UV-I 0 W/m 2,7 C -4,3 C 32,2 km/h (5 Bft) 96,00 %
06.03.2017 03:42 4,8 C 87 % 1005,2 hPa 0,0 l/m 16,6 km/h (3 Bft) W-SW 244 0 min 0,000 mm 0,0 UV-I 0 W/m 2,8 C -2,0 C 24,1 km/h (4 Bft) 100,00 %
06.03.2017 03:44 4,8 C 87 % 1005,2 hPa 0,0 l/m 16,6 km/h (3 Bft) W-SW 250 0 min 0,000 mm 0,0 UV-I 0 W/m 2,8 C -2,0 C 24,1 km/h (4 Bft) 98,04 %
06.03.2017 03:46 4,8 C 87 % 1005,2 hPa 0,0 l/m 16,4 km/h (3 Bft) W-SW 258 0 min 0,000 mm 0,0 UV-I 0 W/m 2,8 C -1,9 C 27,4 km/h (4 Bft) 97,87 %
06.03.2017 03:48 4,8 C 87 % 1005,2 hPa 0,0 l/m 16,4 km/h (3 Bft) W-SW 238 0 min 0,000 mm 0,0 UV-I 0 W/m 2,8 C -1,9 C 22,5 km/h (4 Bft) 95,24 %
06.03.2017 03:50 4,7 C 87 % 1005,2 hPa 0,0 l/m 17,5 km/h (3 Bft) S-SW 207 0 min 0,000 mm 0,0 UV-I 0 W/m 2,7 C -2,5 C 24,1 km/h (4 Bft) 98,18 %
06.03.2017 03:52 4,7 C 87 % 1005,2 hPa 0,0 l/m 13,6 km/h (3 Bft) W-SW 240 0 min 0,000 mm 0,0 UV-I 0 W/m 2,7 C -0,5 C 20,9 km/h (4 Bft) 95,24 %
06.03.2017 03:54 4,7 C 87 % 1005,2 hPa 0,0 l/m 17,2 km/h (3 Bft) W-SW 254 0 min 0,000 mm 0,0 UV-I 0 W/m 2,7 C -2,4 C 25,7 km/h (4 Bft) 96,00 %
06.03.2017 03:56 4,7 C 87 % 1005,1 hPa 0,2 l/m 16,5 km/h (3 Bft) W 259 0 min 0,000 mm 0,0 UV-I 0 W/m 2,7 C -2,0 C 24,1 km/h (4 Bft) 100,00 %
06.03.2017 03:58 4,7 C 87 % 1005,2 hPa 0,0 l/m 16,1 km/h (3 Bft) SW 229 0 min 0,000 mm 0,0 UV-I 0 W/m 2,7 C -1,8 C 25,7 km/h (4 Bft) 94,64 %
06.03.2017 04:00 4,7 C 87 % 1005,1 hPa 0,0 l/m 19,1 km/h (3 Bft) W-SW 257 0 min 0,000 mm 0,0 UV-I 0 W/m 2,7 C -3,2 C 25,7 km/h (4 Bft) 97,87 %
06.03.2017 04:02 4,7 C 86 % 1005,1 hPa 0,0 l/m 13,6 km/h (3 Bft) W-SW 240 0 min 0,026 mm 0,0 UV-I 0 W/m 2,6 C -0,5 C 20,9 km/h (4 Bft) 96,43 %
06.03.2017 04:04 4,7 C 86 % 1005,1 hPa 0,0 l/m 17,6 km/h (3 Bft) W-SW 250 0 min 0,000 mm 0,0 UV-I 0 W/m 2,6 C -2,5 C 30,6 km/h (5 Bft) 96,00 %
06.03.2017 04:06 4,7 C 86 % 1005,2 hPa 0,0 l/m 16,9 km/h (3 Bft) W-SW 248 0 min 0,000 mm 0,0 UV-I 0 W/m 2,6 C -2,2 C 22,5 km/h (4 Bft) 91,30 %
06.03.2017 04:08 4,7 C 86 % 1005,1 hPa 0,0 l/m 15,1 km/h (3 Bft) SW 228 0 min 0,000 mm 0,0 UV-I 0 W/m 2,6 C -1,3 C 20,9 km/h (4 Bft) 98,53 %
06.03.2017 04:10 4,7 C 86 % 1005,1 hPa 0,0 l/m 15,2 km/h (3 Bft) W-SW 244 0 min 0,000 mm 0,0 UV-I 0 W/m 2,6 C -1,4 C 20,9 km/h (4 Bft) 97,73 %
06.03.2017 04:12 4,7 C 86 % 1005,1 hPa 0,0 l/m 14,8 km/h (3 Bft) SW 222 0 min 0,000 mm 0,0 UV-I 0 W/m 2,6 C -1,2 C 22,5 km/h (4 Bft) 92,45 %
06.03.2017 04:14 4,7 C 86 % 1005,1 hPa 0,0 l/m 14,3 km/h (3 Bft) W 259 0 min 0,000 mm 0,0 UV-I 0 W/m 2,6 C -0,9 C 20,9 km/h (4 Bft) 97,56 %
06.03.2017 04:16 4,7 C 86 % 1005,2 hPa 0,0 l/m 15,4 km/h (3 Bft) W-SW 252 0 min 0,000 mm 0,0 UV-I 0 W/m 2,6 C -1,5 C 22,5 km/h (4 Bft) 95,45 %
06.03.2017 04:18 4,7 C 85 % 1005,2 hPa 0,0 l/m 15,9 km/h (3 Bft) W-SW 246 0 min 0,000 mm 0,0 UV-I 0 W/m 2,4 C -1,7 C 20,9 km/h (4 Bft) 96,23 %
06.03.2017 04:20 4,8 C 85 % 1005,2 hPa 0,0 l/m 12,9 km/h (3 Bft) W-SW 240 0 min 0,000 mm 0,0 UV-I 0 W/m 2,5 C -0,0 C 19,3 km/h (3 Bft) 95,12 %
06.03.2017 04:22 4,8 C 85 % 1005,2 hPa 0,0 l/m 15,0 km/h (3 Bft) W 263 0 min 0,000 mm 0,0 UV-I 0 W/m 2,5 C -1,2 C 20,9 km/h (4 Bft) 96,23 %
06.03.2017 04:24 4,8 C 85 % 1005,2 hPa 0,0 l/m 18,7 km/h (3 Bft) W 265 0 min 0,000 mm 0,0 UV-I 0 W/m 2,5 C -2,9 C 25,7 km/h (4 Bft) 90,24 %
06.03.2017 04:26 4,8 C 84 % 1005,2 hPa 0,0 l/m 15,5 km/h (3 Bft) SW 223 0 min 0,000 mm 0,0 UV-I 0 W/m 2,3 C -1,4 C 19,3 km/h (3 Bft) 96,43 %
06.03.2017 04:28 4,9 C 84 % 1005,4 hPa 0,0 l/m 14,3 km/h (3 Bft) SW 227 0 min 0,000 mm 0,0 UV-I 0 W/m 2,4 C -0,7 C 20,9 km/h (4 Bft) 94,87 %
06.03.2017 04:30 4,9 C 84 % 1005,3 hPa 0,0 l/m 18,0 km/h (3 Bft) SW 230 0 min 0,000 mm 0,0 UV-I 0 W/m 2,4 C -2,5 C 25,7 km/h (4 Bft) 95,12 %
06.03.2017 04:32 4,9 C 84 % 1005,4 hPa 0,0 l/m 15,9 km/h (3 Bft) W 260 0 min 0,000 mm 0,0 UV-I 0 W/m 2,4 C -1,5 C 25,7 km/h (4 Bft) 97,73 %
06.03.2017 04:34 4,9 C 84 % 1005,5 hPa 0,0 l/m 16,7 km/h (3 Bft) W-SW 256 0 min 0,000 mm 0,0 UV-I 0 W/m 2,4 C -1,9 C 24,1 km/h (4 Bft) 98,39 %
06.03.2017 04:36 4,9 C 83 % 1005,5 hPa 0,0 l/m 16,8 km/h (3 Bft) W-SW 248 0 min 0,000 mm 0,0 UV-I 0 W/m 2,3 C -1,9 C 22,5 km/h (4 Bft) 91,30 %
06.03.2017 04:38 5,0 C 83 % 1005,5 hPa 0,0 l/m 15,2 km/h (3 Bft) W 265 0 min 0,000 mm 0,0 UV-I 0 W/m 2,4 C -1,0 C 29,0 km/h (5 Bft) 97,06 %
06.03.2017 04:40 5,0 C 83 % 1005,6 hPa 0,0 l/m 20,1 km/h (4 Bft) S-SW 213 0 min 0,000 mm 0,0 UV-I 0 W/m 2,4 C -3,2 C 25,7 km/h (4 Bft) 100,00 %
06.03.2017 04:42 5,1 C 83 % 1005,6 hPa 0,0 l/m 19,6 km/h (3 Bft) SW 236 0 min 0,000 mm 0,0 UV-I 0 W/m 2,5 C -2,9 C 25,7 km/h (4 Bft) 100,00 %
06.03.2017 04:44 5,1 C 83 % 1005,6 hPa 0,0 l/m 20,0 km/h (4 Bft) S-SW 213 0 min 0,000 mm 0,0 UV-I 0 W/m 2,5 C -3,0 C 30,6 km/h (5 Bft) 96,61 %
06.03.2017 04:46 5,2 C 82 % 1005,6 hPa 0,0 l/m 18,1 km/h (3 Bft) W-SW 240 0 min 0,000 mm 0,0 UV-I 0 W/m 2,4 C -2,1 C 27,4 km/h (4 Bft) 100,00 %
06.03.2017 04:48 5,2 C 82 % 1005,6 hPa 0,0 l/m 17,2 km/h (3 Bft) SW 234 0 min 0,000 mm 0,0 UV-I 0 W/m 2,4 C -1,7 C 25,7 km/h (4 Bft) 100,00 %
06.03.2017 04:50 5,2 C 82 % 1005,7 hPa 0,0 l/m 17,8 km/h (3 Bft) W-SW 257 0 min 0,000 mm 0,0 UV-I 0 W/m 2,4 C -2,0 C 24,1 km/h (4 Bft) 92,68 %
06.03.2017 04:52 5,2 C 82 % 1005,8 hPa 0,0 l/m 20,1 km/h (4 Bft) SW 236 0 min 0,000 mm 0,0 UV-I 0 W/m 2,4 C -3,0 C 29,0 km/h (5 Bft) 97,56 %
06.03.2017 04:54 5,2 C 82 % 1005,8 hPa 0,0 l/m 19,2 km/h (3 Bft) S-SW 198 0 min 0,000 mm 0,0 UV-I 0 W/m 2,4 C -2,6 C 30,6 km/h (5 Bft) 98,00 %
06.03.2017 04:56 5,2 C 82 % 1005,8 hPa 0,0 l/m 18,3 km/h (3 Bft) SW 219 0 min 0,000 mm 0,0 UV-I 0 W/m 2,4 C -2,2 C 25,7 km/h (4 Bft) 100,00 %
06.03.2017 04:58 5,2 C 82 % 1005,7 hPa 0,0 l/m 14,2 km/h (3 Bft) SW 233 0 min 0,000 mm 0,0 UV-I 0 W/m 2,4 C -0,3 C 20,9 km/h (4 Bft) 98,31 %
06.03.2017 05:00 5,2 C 82 % 1005,7 hPa 0,0 l/m 20,0 km/h (4 Bft) W-SW 237 0 min 0,025 mm 0,0 UV-I 0 W/m 2,4 C -2,9 C 27,4 km/h (4 Bft) 100,00 %
06.03.2017 05:02 5,2 C 82 % 1005,8 hPa 0,0 l/m 18,8 km/h (3 Bft) S-SW 201 0 min 0,000 mm 0,0 UV-I 0 W/m 2,4 C -2,4 C 27,4 km/h (4 Bft) 95,74 %
06.03.2017 05:04 5,2 C 82 % 1005,8 hPa 0,0 l/m 19,5 km/h (3 Bft) W-SW 252 0 min 0,000 mm 0,0 UV-I 0 W/m 2,4 C -2,7 C 30,6 km/h (5 Bft) 98,11 %
06.03.2017 05:06 5,2 C 82 % 1005,8 hPa 0,0 l/m 16,8 km/h (3 Bft) SW 234 0 min 0,000 mm 0,0 UV-I 0 W/m 2,4 C -1,6 C 22,5 km/h (4 Bft) 100,00 %
06.03.2017 05:08 5,2 C 82 % 1005,8 hPa 0,0 l/m 15,0 km/h (3 Bft) SW 235 0 min 0,000 mm 0,0 UV-I 0 W/m 2,4 C -0,7 C 22,5 km/h (4 Bft) 98,00 %
06.03.2017 05:10 5,1 C 82 % 1005,8 hPa 0,0 l/m 23,4 km/h (4 Bft) SW 228 0 min 0,000 mm 0,0 UV-I 0 W/m 2,3 C -4,3 C 29,0 km/h (5 Bft) 100,00 %
06.03.2017 05:12 5,1 C 82 % 1005,8 hPa 0,0 l/m 16,9 km/h (3 Bft) SW 229 0 min 0,000 mm 0,0 UV-I 0 W/m 2,3 C -1,7 C 22,5 km/h (4 Bft) 97,62 %
06.03.2017 05:14 5,1 C 82 % 1005,9 hPa 0,0 l/m 16,7 km/h (3 Bft) SW 228 0 min 0,000 mm 0,0 UV-I 0 W/m 2,3 C -1,6 C 25,7 km/h (4 Bft) 100,00 %
06.03.2017 05:16 5,1 C 82 % 1005,9 hPa 0,0 l/m 15,0 km/h (3 Bft) S-SW 213 0 min 0,000 mm 0,0 UV-I 0 W/m 2,3 C -0,8 C 24,1 km/h (4 Bft) 100,00 %
06.03.2017 05:18 5,1 C 82 % 1005,9 hPa 0,0 l/m 17,2 km/h (3 Bft) W-SW 243 0 min 0,000 mm 0,0 UV-I 0 W/m 2,3 C -1,9 C 22,5 km/h (4 Bft) 100,00 %
06.03.2017 05:20 5,1 C 82 % 1005,8 hPa 0,0 l/m 16,2 km/h (3 Bft) SW 218 0 min 0,000 mm 0,0 UV-I 0 W/m 2,3 C -1,4 C 24,1 km/h (4 Bft) 100,00 %
06.03.2017 05:22 5,0 C 82 % 1005,9 hPa 0,0 l/m 16,5 km/h (3 Bft) SW 232 0 min 0,000 mm 0,0 UV-I 0 W/m 2,2 C -1,7 C 29,0 km/h (5 Bft) 100,00 %
06.03.2017 05:24 5,0 C 82 % 1005,9 hPa 0,0 l/m 17,1 km/h (3 Bft) SW 232 0 min 0,000 mm 0,0 UV-I 0 W/m 2,2 C -1,9 C 27,4 km/h (4 Bft) 100,00 %
06.03.2017 05:26 4,9 C 82 % 1005,9 hPa 0,0 l/m 14,6 km/h (3 Bft) S-SW 202 0 min 0,000 mm 0,0 UV-I 0 W/m 2,1 C -0,8 C 19,3 km/h (3 Bft) 98,00 %
06.03.2017 05:28 4,9 C 82 % 1005,9 hPa 0,0 l/m 13,6 km/h (3 Bft) SW 226 0 min 0,000 mm 0,0 UV-I 0 W/m 2,1 C -0,3 C 20,9 km/h (4 Bft) 94,74 %
06.03.2017 05:30 4,9 C 82 % 1005,9 hPa 0,0 l/m 10,5 km/h (2 Bft) W-SW 243 0 min 0,000 mm 0,0 UV-I 0 W/m 2,1 C 1,6 C 17,7 km/h (3 Bft) 97,87 %
06.03.2017 05:32 4,9 C 82 % 1005,9 hPa 0,0 l/m 16,6 km/h (3 Bft) SW 219 0 min 0,000 mm 0,0 UV-I 0 W/m 2,1 C -1,8 C 22,5 km/h (4 Bft) 98,21 %
06.03.2017 05:34 4,9 C 82 % 1005,9 hPa 0,0 l/m 11,7 km/h (2 Bft) SW 225 0 min 0,000 mm 0,0 UV-I 0 W/m 2,1 C 0,8 C 19,3 km/h (3 Bft) 97,73 %
06.03.2017 05:36 4,9 C 82 % 1005,9 hPa 0,0 l/m 13,9 km/h (3 Bft) W-SW 257 0 min 0,000 mm 0,0 UV-I 0 W/m 2,1 C -0,5 C 22,5 km/h (4 Bft) 93,18 %
06.03.2017 05:38 4,9 C 82 % 1006,0 hPa 0,0 l/m 14,6 km/h (3 Bft) SW 231 0 min 0,000 mm 0,0 UV-I 0 W/m 2,1 C -0,8 C 20,9 km/h (4 Bft) 96,23 %
06.03.2017 05:40 4,9 C 81 % 1006,0 hPa 0,0 l/m 14,2 km/h (3 Bft) SW 227 0 min 0,000 mm 0,0 UV-I 0 W/m 1,9 C -0,6 C 20,9 km/h (4 Bft) 97,56 %
06.03.2017 05:42 4,9 C 81 % 1006,0 hPa 0,0 l/m 14,8 km/h (3 Bft) SW 231 0 min 0,000 mm 0,0 UV-I 0 W/m 1,9 C -0,9 C 22,5 km/h (4 Bft) 95,74 %
06.03.2017 05:44 4,9 C 81 % 1006,0 hPa 0,0 l/m 15,7 km/h (3 Bft) W-SW 246 0 min 0,000 mm 0,0 UV-I 0 W/m 1,9 C -1,4 C 19,3 km/h (3 Bft) 96,00 %
06.03.2017 05:46 4,9 C 81 % 1006,0 hPa 0,0 l/m 14,7 km/h (3 Bft) SW 223 0 min 0,000 mm 0,0 UV-I 0 W/m 1,9 C -0,9 C 19,3 km/h (3 Bft) 95,74 %
06.03.2017 05:48 4,9 C 81 % 1006,0 hPa 0,0 l/m 14,8 km/h (3 Bft) W-SW 255 0 min 0,000 mm 0,0 UV-I 0 W/m 1,9 C -0,9 C 25,7 km/h (4 Bft) 97,62 %
06.03.2017 05:50 4,9 C 80 % 1005,9 hPa 0,0 l/m 15,4 km/h (3 Bft) W-SW 255 0 min 0,000 mm 0,0 UV-I 0 W/m 1,7 C -1,2 C 20,9 km/h (4 Bft) 95,12 %
06.03.2017 05:52 5,0 C 80 % 1005,9 hPa 0,0 l/m 15,3 km/h (3 Bft) W-SW 237 0 min 0,000 mm 0,0 UV-I 0 W/m 1,8 C -1,1 C 20,9 km/h (4 Bft) 96,23 %
06.03.2017 05:54 5,0 C 80 % 1005,9 hPa 0,0 l/m 17,9 km/h (3 Bft) SW 236 0 min 0,000 mm 0,0 UV-I 0 W/m 1,8 C -2,3 C 29,0 km/h (5 Bft) 98,00 %
06.03.2017 05:56 5,0 C 80 % 1005,9 hPa 0,0 l/m 15,1 km/h (3 Bft) W-SW 244 0 min 0,000 mm 0,0 UV-I 0 W/m 1,8 C -1,0 C 20,9 km/h (4 Bft) 96,00 %
06.03.2017 05:58 4,9 C 80 % 1005,8 hPa 0,0 l/m 14,8 km/h (3 Bft) W 262 0 min 0,000 mm 0,0 UV-I 0 W/m 1,7 C -0,9 C 19,3 km/h (3 Bft) 97,37 %
06.03.2017 06:00 4,9 C 80 % 1005,8 hPa 0,0 l/m 14,0 km/h (3 Bft) SW 229 0 min 0,026 mm 0,0 UV-I 0 W/m 1,7 C -0,5 C 19,3 km/h (3 Bft) 97,73 %
06.03.2017 06:02 4,8 C 80 % 1005,7 hPa 0,0 l/m 14,7 km/h (3 Bft) SW 224 0 min 0,000 mm 0,0 UV-I 0 W/m 1,6 C -1,0 C 22,5 km/h (4 Bft) 93,22 %
06.03.2017 06:04 4,8 C 80 % 1005,7 hPa 0,0 l/m 17,2 km/h (3 Bft) SW 232 0 min 0,000 mm 0,0 UV-I 0 W/m 1,6 C -2,2 C 25,7 km/h (4 Bft) 100,00 %
06.03.2017 06:06 4,8 C 80 % 1005,7 hPa 0,0 l/m 12,7 km/h (3 Bft) SW 231 0 min 0,000 mm 0,0 UV-I 0 W/m 1,6 C 0,1 C 20,9 km/h (4 Bft) 95,59 %
06.03.2017 06:08 4,8 C 79 % 1005,7 hPa 0,0 l/m 13,8 km/h (3 Bft) SW 227 0 min 0,000 mm 0,0 UV-I 0 W/m 1,5 C -0,5 C 19,3 km/h (3 Bft) 90,24 %
06.03.2017 06:10 4,8 C 79 % 1005,7 hPa 0,0 l/m 12,6 km/h (3 Bft) SW 223 0 min 0,000 mm 0,0 UV-I 0 W/m 1,5 C 0,2 C 19,3 km/h (3 Bft) 96,23 %
06.03.2017 06:12 4,8 C 79 % 1005,8 hPa 0,0 l/m 14,8 km/h (3 Bft) SW 229 0 min 0,000 mm 0,0 UV-I 0 W/m 1,5 C -1,1 C 20,9 km/h (4 Bft) 90,91 %
06.03.2017 06:14 4,7 C 79 % 1005,7 hPa 0,0 l/m 13,6 km/h (3 Bft) W-SW 244 0 min 0,000 mm 0,0 UV-I 0 W/m 1,4 C -0,5 C 17,7 km/h (3 Bft) 94,74 %
06.03.2017 06:16 4,7 C 79 % 1005,7 hPa 0,0 l/m 15,2 km/h (3 Bft) SW 236 0 min 0,000 mm 0,0 UV-I 0 W/m 1,4 C -1,4 C 20,9 km/h (4 Bft) 93,22 %
06.03.2017 06:18 4,7 C 79 % 1005,7 hPa 0,0 l/m 14,7 km/h (3 Bft) W-SW 256 0 min 0,000 mm 0,0 UV-I 0 W/m 1,4 C -1,1 C 20,9 km/h (4 Bft) 91,43 %
06.03.2017 06:20 4,7 C 79 % 1005,7 hPa 0,0 l/m 16,1 km/h (3 Bft) SW 232 0 min 0,000 mm 0,0 UV-I 0 W/m 1,4 C -1,8 C 22,5 km/h (4 Bft) 96,23 %
06.03.2017 06:22 4,7 C 79 % 1005,7 hPa 0,0 l/m 13,8 km/h (3 Bft) SW 234 0 min 0,000 mm 0,0 UV-I 0 W/m 1,4 C -0,6 C 20,9 km/h (4 Bft) 90,00 %
06.03.2017 06:24 4,7 C 79 % 1005,8 hPa 0,0 l/m 16,3 km/h (3 Bft) NW 304 0 min 0,000 mm 0,0 UV-I 0 W/m 1,4 C -1,9 C 27,4 km/h (4 Bft) 83,33 %
06.03.2017 06:26 4,7 C 79 % 1005,8 hPa 0,0 l/m 14,0 km/h (3 Bft) W 272 0 min 0,000 mm 0,0 UV-I 2 W/m 1,4 C -0,8 C 20,9 km/h (4 Bft) 94,34 %
06.03.2017 06:28 4,7 C 78 % 1005,8 hPa 0,0 l/m 15,3 km/h (3 Bft) SW 219 0 min 0,000 mm 0,0 UV-I 5 W/m 1,2 C -1,4 C 22,5 km/h (4 Bft) 92,73 %
06.03.2017 06:30 4,7 C 78 % 1005,8 hPa 0,0 l/m 14,5 km/h (3 Bft) W-SW 255 0 min 0,000 mm 0,0 UV-I 5 W/m 1,2 C -1,0 C 19,3 km/h (3 Bft) 90,48 %
06.03.2017 06:32 4,7 C 78 % 1005,8 hPa 0,0 l/m 13,7 km/h (3 Bft) W 277 0 min 0,000 mm 0,0 UV-I 5 W/m 1,2 C -0,6 C 20,9 km/h (4 Bft) 95,12 %
06.03.2017 06:34 4,8 C 78 % 1005,9 hPa 0,0 l/m 14,8 km/h (3 Bft) W-SW 249 0 min 0,000 mm 0,0 UV-I 5 W/m 1,3 C -1,1 C 19,3 km/h (3 Bft) 93,22 %
06.03.2017 06:36 4,8 C 77 % 1005,9 hPa 0,0 l/m 14,3 km/h (3 Bft) W-SW 247 0 min 0,000 mm 0,0 UV-I 6 W/m 1,1 C -0,8 C 17,7 km/h (3 Bft) 92,11 %
06.03.2017 06:38 4,8 C 77 % 1005,9 hPa 0,0 l/m 16,5 km/h (3 Bft) W-SW 244 0 min 0,000 mm 0,0 UV-I 7 W/m 1,1 C -1,9 C 20,9 km/h (4 Bft) 94,64 %
06.03.2017 06:40 4,8 C 76 % 1005,9 hPa 0,0 l/m 17,2 km/h (3 Bft) W-SW 242 0 min 0,000 mm 0,0 UV-I 8 W/m 0,9 C -2,2 C 24,1 km/h (4 Bft) 94,29 %
06.03.2017 06:42 4,9 C 76 % 1005,9 hPa 0,0 l/m 15,0 km/h (3 Bft) W-SW 249 0 min 0,000 mm 0,0 UV-I 9 W/m 1,0 C -1,0 C 20,9 km/h (4 Bft) 98,08 %
06.03.2017 06:44 5,0 C 76 % 1005,9 hPa 0,0 l/m 15,5 km/h (3 Bft) W 275 0 min 0,000 mm 0,0 UV-I 11 W/m 1,1 C -1,2 C 24,1 km/h (4 Bft) 100,00 %
06.03.2017 06:46 5,1 C 76 % 1005,9 hPa 0,0 l/m 13,7 km/h (3 Bft) W 265 2 min 0,000 mm 0,0 UV-I 12 W/m 1,2 C -0,1 C 19,3 km/h (3 Bft) 98,41 %
06.03.2017 06:48 5,1 C 76 % 1005,9 hPa 0,0 l/m 15,4 km/h (3 Bft) W 263 2 min 0,000 mm 0,0 UV-I 13 W/m 1,2 C -1,0 C 22,5 km/h (4 Bft) 98,11 %
06.03.2017 06:50 5,1 C 75 % 1005,9 hPa 0,0 l/m 15,1 km/h (3 Bft) W-SW 252 0 min 0,000 mm 0,0 UV-I 14 W/m 1,0 C -0,9 C 20,9 km/h (4 Bft) 100,00 %
06.03.2017 06:52 5,2 C 75 % 1005,8 hPa 0,0 l/m 18,7 km/h (3 Bft) W-SW 255 0 min 0,000 mm 0,0 UV-I 14 W/m 1,1 C -2,4 C 25,7 km/h (4 Bft) 97,87 %
06.03.2017 06:54 5,2 C 75 % 1005,9 hPa 0,0 l/m 17,1 km/h (3 Bft) W-SW 241 0 min 0,000 mm 0,0 UV-I 18 W/m 1,1 C -1,7 C 20,9 km/h (4 Bft) 94,34 %
06.03.2017 06:56 5,2 C 74 % 1005,9 hPa 0,0 l/m 16,1 km/h (3 Bft) W-SW 257 0 min 0,000 mm 0,0 UV-I 19 W/m 1,0 C -1,2 C 25,7 km/h (4 Bft) 100,00 %
06.03.2017 06:58 5,3 C 74 % 1005,9 hPa 0,0 l/m 13,9 km/h (3 Bft) W 271 0 min 0,000 mm 0,0 UV-I 19 W/m 1,0 C 0,0 C 19,3 km/h (3 Bft) 100,00 %
06.03.2017 07:00 5,3 C 74 % 1005,9 hPa 0,0 l/m 16,0 km/h (3 Bft) W 269 0 min 0,025 mm 0,0 UV-I 19 W/m 1,0 C -1,1 C 24,1 km/h (4 Bft) 97,56 %
06.03.2017 07:02 5,3 C 74 % 1005,9 hPa 0,0 l/m 14,1 km/h (3 Bft) W 267 0 min 0,000 mm 0,0 UV-I 21 W/m 1,0 C -0,1 C 22,5 km/h (4 Bft) 92,86 %
06.03.2017 07:04 5,3 C 74 % 1005,9 hPa 0,0 l/m 12,9 km/h (3 Bft) W-SW 246 0 min 0,000 mm 0,0 UV-I 24 W/m 1,0 C 0,6 C 17,7 km/h (3 Bft) 98,11 %
06.03.2017 07:06 5,3 C 74 % 1005,9 hPa 0,0 l/m 14,4 km/h (3 Bft) W 261 0 min 0,000 mm 0,0 UV-I 28 W/m 1,0 C -0,3 C 30,6 km/h (5 Bft) 96,36 %
06.03.2017 07:08 5,3 C 74 % 1005,9 hPa 0,0 l/m 12,9 km/h (3 Bft) W-SW 246 0 min 0,000 mm 0,0 UV-I 35 W/m 1,0 C 0,6 C 20,9 km/h (4 Bft) 94,00 %
06.03.2017 07:10 5,4 C 74 % 1005,8 hPa 0,0 l/m 14,3 km/h (3 Bft) W 266 0 min 0,000 mm 0,0 UV-I 41 W/m 1,1 C -0,1 C 22,5 km/h (4 Bft) 100,00 %
06.03.2017 07:12 5,4 C 74 % 1005,9 hPa 0,0 l/m 10,4 km/h (2 Bft) W-SW 237 0 min 0,000 mm 0,0 UV-I 44 W/m 1,1 C 2,2 C 16,1 km/h (3 Bft) 100,00 %
06.03.2017 07:14 5,4 C 73 % 1005,9 hPa 0,0 l/m 13,9 km/h (3 Bft) W 260 0 min 0,000 mm 0,0 UV-I 47 W/m 1,0 C 0,1 C 20,9 km/h (4 Bft) 100,00 %
06.03.2017 07:16 5,4 C 73 % 1005,9 hPa 0,0 l/m 13,1 km/h (3 Bft) W-SW 244 0 min 0,000 mm 0,0 UV-I 49 W/m 1,0 C 0,6 C 20,9 km/h (4 Bft) 94,00 %
06.03.2017 07:18 5,4 C 74 % 1006,0 hPa 0,0 l/m 16,1 km/h (3 Bft) W 265 0 min 0,000 mm 0,0 UV-I 54 W/m 1,1 C -1,0 C 27,4 km/h (4 Bft) 100,00 %
06.03.2017 07:20 5,5 C 73 % 1006,0 hPa 0,0 l/m 20,2 km/h (4 Bft) W-SW 254 0 min 0,000 mm 0,0 UV-I 55 W/m 1,1 C -2,6 C 27,4 km/h (4 Bft) 92,11 %
06.03.2017 07:22 5,6 C 73 % 1005,9 hPa 0,0 l/m 14,8 km/h (3 Bft) SW 227 0 min 0,000 mm 0,0 UV-I 53 W/m 1,2 C -0,1 C 19,3 km/h (3 Bft) 100,00 %
06.03.2017 07:24 5,6 C 73 % 1006,0 hPa 0,0 l/m 16,9 km/h (3 Bft) W-SW 250 0 min 0,000 mm 0,0 UV-I 51 W/m 1,2 C -1,1 C 24,1 km/h (4 Bft) 100,00 %
06.03.2017 07:26 5,7 C 72 % 1006,0 hPa 0,0 l/m 13,2 km/h (3 Bft) W-SW 255 0 min 0,000 mm 0,0 UV-I 51 W/m 1,1 C 0,9 C 19,3 km/h (3 Bft) 100,00 %
06.03.2017 07:28 5,7 C 72 % 1005,9 hPa 0,0 l/m 14,8 km/h (3 Bft) W 271 0 min 0,000 mm 0,0 UV-I 49 W/m 1,1 C 0,0 C 22,5 km/h (4 Bft) 97,87 %
06.03.2017 07:30 5,7 C 73 % 1006,0 hPa 0,0 l/m 10,2 km/h (2 Bft) W 263 0 min 0,000 mm 0,0 UV-I 47 W/m 1,2 C 2,7 C 17,7 km/h (3 Bft) 98,00 %
06.03.2017 07:32 5,7 C 73 % 1006,0 hPa 0,0 l/m 10,0 km/h (2 Bft) SW 234 0 min 0,000 mm 0,0 UV-I 47 W/m 1,2 C 2,8 C 16,1 km/h (3 Bft) 100,00 %
06.03.2017 07:34 5,7 C 73 % 1006,0 hPa 0,0 l/m 11,9 km/h (2 Bft) W-SW 245 0 min 0,000 mm 0,0 UV-I 49 W/m 1,2 C 1,6 C 19,3 km/h (3 Bft) 100,00 %
06.03.2017 07:36 5,7 C 73 % 1006,1 hPa 0,0 l/m 12,5 km/h (3 Bft) W-SW 250 0 min 0,000 mm 0,0 UV-I 48 W/m 1,2 C 1,3 C 19,3 km/h (3 Bft) 98,31 %
06.03.2017 07:38 5,7 C 73 % 1006,1 hPa 0,0 l/m 13,2 km/h (3 Bft) W 263 0 min 0,000 mm 0,0 UV-I 44 W/m 1,2 C 0,9 C 17,7 km/h (3 Bft) 95,74 %
06.03.2017 07:40 5,6 C 73 % 1006,1 hPa 0,0 l/m 14,6 km/h (3 Bft) W-SW 241 0 min 0,000 mm 0,0 UV-I 43 W/m 1,2 C 0,0 C 22,5 km/h (4 Bft) 96,00 %
06.03.2017 07:42 5,7 C 72 % 1006,1 hPa 0,0 l/m 13,6 km/h (3 Bft) SW 226 0 min 0,000 mm 0,0 UV-I 42 W/m 1,1 C 0,7 C 19,3 km/h (3 Bft) 97,14 %
06.03.2017 07:44 5,7 C 72 % 1006,1 hPa 0,0 l/m 14,8 km/h (3 Bft) SW 230 0 min 0,000 mm 0,0 UV-I 41 W/m 1,1 C 0,0 C 20,9 km/h (4 Bft) 100,00 %
06.03.2017 07:46 5,7 C 72 % 1006,1 hPa 0,0 l/m 16,1 km/h (3 Bft) SW 223 0 min 0,000 mm 0,0 UV-I 47 W/m 1,1 C -0,6 C 25,7 km/h (4 Bft) 97,62 %
06.03.2017 07:48 5,7 C 72 % 1006,2 hPa 0,0 l/m 19,3 km/h (3 Bft) W-SW 238 0 min 0,000 mm 0,0 UV-I 54 W/m 1,1 C -2,0 C 29,0 km/h (5 Bft) 96,15 %
06.03.2017 07:50 5,7 C 72 % 1006,0 hPa 0,0 l/m 15,8 km/h (3 Bft) W 265 0 min 0,000 mm 0,0 UV-I 60 W/m 1,1 C -0,5 C 24,1 km/h (4 Bft) 100,00 %
06.03.2017 07:52 5,7 C 72 % 1006,0 hPa 0,0 l/m 18,2 km/h (3 Bft) W-SW 244 0 min 0,000 mm 0,0 UV-I 60 W/m 1,1 C -1,5 C 29,0 km/h (5 Bft) 96,00 %
06.03.2017 07:54 5,8 C 72 % 1006,0 hPa 0,0 l/m 22,8 km/h (4 Bft) SW 227 0 min 0,000 mm 0,0 UV-I 60 W/m 1,2 C -3,1 C 32,2 km/h (5 Bft) 95,74 %
06.03.2017 07:56 5,8 C 71 % 1006,0 hPa 0,0 l/m 20,3 km/h (4 Bft) W-SW 238 0 min 0,000 mm 0,0 UV-I 61 W/m 1,0 C -2,3 C 32,2 km/h (5 Bft) 98,04 %
06.03.2017 07:58 5,9 C 71 % 1006,0 hPa 0,0 l/m 19,6 km/h (3 Bft) W 270 0 min 0,000 mm 0,0 UV-I 65 W/m 1,1 C -1,9 C 24,1 km/h (4 Bft) 97,56 %
06.03.2017 08:00 6,1 C 70 % 1006,0 hPa 0,0 l/m 18,7 km/h (3 Bft) W-SW 252 0 min 0,051 mm 0,0 UV-I 68 W/m 1,0 C -1,2 C 27,4 km/h (4 Bft) 97,73 %
06.03.2017 08:02 6,1 C 70 % 1005,9 hPa 0,0 l/m 22,2 km/h (4 Bft) W 265 0 min 0,000 mm 0,0 UV-I 70 W/m 1,0 C -2,5 C 30,6 km/h (5 Bft) 100,00 %
06.03.2017 08:04 6,1 C 70 % 1006,0 hPa 0,0 l/m 20,8 km/h (4 Bft) W-SW 252 0 min 0,000 mm 0,0 UV-I 72 W/m 1,0 C -2,0 C 30,6 km/h (5 Bft) 94,74 %
06.03.2017 08:06 6,0 C 70 % 1005,9 hPa 0,0 l/m 20,7 km/h (4 Bft) W-SW 256 0 min 0,000 mm 0,0 UV-I 77 W/m 1,0 C -2,1 C 27,4 km/h (4 Bft) 96,00 %
06.03.2017 08:08 6,0 C 70 % 1005,9 hPa 0,0 l/m 22,5 km/h (4 Bft) W-SW 248 0 min 0,000 mm 0,0 UV-I 79 W/m 1,0 C -2,8 C 29,0 km/h (5 Bft) 100,00 %
06.03.2017 08:10 6,0 C 69 % 1005,9 hPa 0,0 l/m 20,7 km/h (4 Bft) W-SW 243 0 min 0,000 mm 0,0 UV-I 81 W/m 0,8 C -2,1 C 25,7 km/h (4 Bft) 96,00 %
06.03.2017 08:12 5,9 C 69 % 1006,0 hPa 0,0 l/m 19,0 km/h (3 Bft) W-SW 240 0 min 0,000 mm 0,0 UV-I 81 W/m 0,7 C -1,6 C 27,4 km/h (4 Bft) 98,00 %
06.03.2017 08:14 5,9 C 70 % 1005,9 hPa 0,0 l/m 19,9 km/h (4 Bft) W-SW 257 0 min 0,000 mm 0,0 UV-I 85 W/m 0,9 C -2,0 C 32,2 km/h (5 Bft) 97,56 %
06.03.2017 08:16 5,9 C 69 % 1005,9 hPa 0,0 l/m 19,0 km/h (3 Bft) W-SW 258 0 min 0,000 mm 0,0 UV-I 86 W/m 0,7 C -1,6 C 24,1 km/h (4 Bft) 95,12 %
06.03.2017 08:18 5,9 C 70 % 1005,9 hPa 0,0 l/m 17,4 km/h (3 Bft) SW 235 0 min 0,000 mm 0,0 UV-I 87 W/m 0,9 C -0,9 C 29,0 km/h (5 Bft) 91,07 %
06.03.2017 08:20 5,8 C 70 % 1005,8 hPa 0,0 l/m 17,5 km/h (3 Bft) W-SW 251 0 min 0,000 mm 0,0 UV-I 102 W/m 0,8 C -1,1 C 25,7 km/h (4 Bft) 90,24 %
06.03.2017 08:22 5,8 C 70 % 1005,8 hPa 0,0 l/m 17,3 km/h (3 Bft) SW 230 0 min 0,000 mm 0,0 UV-I 121 W/m 0,8 C -1,0 C 29,0 km/h (5 Bft) 89,36 %
06.03.2017 08:24 5,8 C 69 % 1005,8 hPa 0,0 l/m 19,2 km/h (3 Bft) W 265 0 min 0,000 mm 0,0 UV-I 134 W/m 0,6 C -1,8 C 33,8 km/h (5 Bft) 88,10 %
06.03.2017 08:26 5,9 C 69 % 1005,8 hPa 0,0 l/m 18,9 km/h (3 Bft) SW 225 0 min 0,000 mm 0,0 UV-I 143 W/m 0,7 C -1,6 C 35,4 km/h (5 Bft) 94,83 %
06.03.2017 08:29 5,9 C 69 % 1005,8 hPa 0,0 l/m 18,0 km/h (3 Bft) SW 234 0 min 0,000 mm 0,0 UV-I 161 W/m 0,7 C -1,2 C 29,0 km/h (5 Bft) 93,85 %
06.03.2017 08:30 6,0 C 69 % 1005,8 hPa 0,0 l/m 18,8 km/h (3 Bft) SW 229 1 min 0,000 mm 0,0 UV-I 192 W/m 0,8 C -1,4 C 24,1 km/h (4 Bft) 100,00 %
06.03.2017 08:32 6,1 C 69 % 1005,8 hPa 0,0 l/m 21,2 km/h (4 Bft) W 268 2 min 0,000 mm 0,0 UV-I 227 W/m 0,8 C -2,2 C 27,4 km/h (4 Bft) 97,37 %
06.03.2017 08:34 6,2 C 69 % 1005,7 hPa 0,0 l/m 15,0 km/h (3 Bft) S-SW 202 2 min 0,000 mm 0,0 UV-I 260 W/m 0,9 C 0,5 C 20,9 km/h (4 Bft) 94,92 %
06.03.2017 08:36 6,3 C 68 % 1005,7 hPa 0,0 l/m 20,2 km/h (4 Bft) W-SW 254 2 min 0,000 mm 0,0 UV-I 286 W/m 0,8 C -1,6 C 27,4 km/h (4 Bft) 94,74 %
06.03.2017 08:38 6,3 C 68 % 1005,8 hPa 0,0 l/m 18,3 km/h (3 Bft) W-SW 247 2 min 0,000 mm 0,0 UV-I 280 W/m 0,8 C -0,8 C 24,1 km/h (4 Bft) 94,64 %
06.03.2017 08:40 6,4 C 69 % 1005,7 hPa 0,0 l/m 19,9 km/h (4 Bft) SW 234 2 min 0,000 mm 0,0 UV-I 295 W/m 1,1 C -1,3 C 32,2 km/h (5 Bft) 97,87 %
06.03.2017 08:42 6,5 C 68 % 1005,7 hPa 0,0 l/m 18,3 km/h (3 Bft) SW 225 2 min 0,000 mm 0,0 UV-I 303 W/m 1,0 C -0,6 C 27,4 km/h (4 Bft) 97,37 %
06.03.2017 08:44 6,6 C 67 % 1005,8 hPa 0,0 l/m 18,2 km/h (3 Bft) SW 236 2 min 0,000 mm 0,0 UV-I 304 W/m 0,9 C -0,4 C 25,7 km/h (4 Bft) 98,21 %
06.03.2017 08:46 6,6 C 68 % 1005,7 hPa 0,0 l/m 16,9 km/h (3 Bft) W-SW 250 2 min 0,000 mm 0,4 UV-I 306 W/m 1,1 C 0,1 C 22,5 km/h (4 Bft) 93,62 %
06.03.2017 08:48 6,6 C 67 % 1005,8 hPa 0,0 l/m 19,8 km/h (3 Bft) W 273 2 min 0,000 mm 0,5 UV-I 311 W/m 0,9 C -1,0 C 29,0 km/h (5 Bft) 100,00 %
06.03.2017 08:50 6,7 C 68 % 1005,7 hPa 0,0 l/m 15,1 km/h (3 Bft) W 266 2 min 0,000 mm 0,5 UV-I 310 W/m 1,2 C 1,1 C 20,9 km/h (4 Bft) 96,55 %
06.03.2017 08:52 6,7 C 67 % 1005,8 hPa 0,0 l/m 22,7 km/h (4 Bft) W 263 2 min 0,000 mm 0,5 UV-I 311 W/m 1,0 C -1,9 C 29,0 km/h (5 Bft) 98,11 %
06.03.2017 08:54 6,7 C 67 % 1005,8 hPa 0,0 l/m 16,5 km/h (3 Bft) SW 234 2 min 0,000 mm 0,5 UV-I 315 W/m 1,0 C 0,4 C 22,5 km/h (4 Bft) 98,00 %
06.03.2017 08:56 6,8 C 67 % 1005,8 hPa 0,0 l/m 13,9 km/h (3 Bft) SW 229 2 min 0,000 mm 0,5 UV-I 318 W/m 1,1 C 1,8 C 24,1 km/h (4 Bft) 97,56 %
06.03.2017 08:58 6,8 C 67 % 1005,8 hPa 0,0 l/m 18,0 km/h (3 Bft) W-SW 239 2 min 0,000 mm 0,5 UV-I 327 W/m 1,1 C -0,1 C 27,4 km/h (4 Bft) 98,11 %
06.03.2017 09:00 6,9 C 66 % 1005,8 hPa 0,0 l/m 16,0 km/h (3 Bft) W-SW 252 2 min 0,000 mm 0,5 UV-I 332 W/m 1,0 C 0,9 C 22,5 km/h (4 Bft) 100,00 %
06.03.2017 09:02 7,0 C 66 % 1005,8 hPa 0,0 l/m 16,6 km/h (3 Bft) SW 231 2 min 0,127 mm 0,6 UV-I 342 W/m 1,1 C 0,8 C 22,5 km/h (4 Bft) 94,34 %
06.03.2017 09:04 7,1 C 66 % 1005,9 hPa 0,0 l/m 16,1 km/h (3 Bft) SW 221 2 min 0,000 mm 0,5 UV-I 290 W/m 1,2 C 1,1 C 29,0 km/h (5 Bft) 100,00 %
06.03.2017 09:06 7,1 C 65 % 1005,8 hPa 0,0 l/m 16,6 km/h (3 Bft) W-SW 245 2 min 0,000 mm 0,6 UV-I 301 W/m 1,0 C 0,9 C 25,7 km/h (4 Bft) 98,21 %
06.03.2017 09:08 7,1 C 64 % 1005,8 hPa 0,0 l/m 21,7 km/h (4 Bft) W 271 2 min 0,000 mm 0,6 UV-I 307 W/m 0,8 C -1,1 C 33,8 km/h (5 Bft) 100,00 %
06.03.2017 09:10 7,2 C 65 % 1005,8 hPa 0,0 l/m 17,5 km/h (3 Bft) W-SW 253 2 min 0,000 mm 0,6 UV-I 307 W/m 1,1 C 0,6 C 24,1 km/h (4 Bft) 97,56 %
06.03.2017 09:12 7,2 C 65 % 1005,8 hPa 0,0 l/m 15,4 km/h (3 Bft) SW 231 2 min 0,000 mm 0,6 UV-I 306 W/m 1,1 C 1,6 C 22,5 km/h (4 Bft) 98,11 %
06.03.2017 09:14 7,3 C 63 % 1005,8 hPa 0,0 l/m 17,4 km/h (3 Bft) SW 233 2 min 0,000 mm 0,6 UV-I 356 W/m 0,7 C 0,8 C 25,7 km/h (4 Bft) 97,73 %
06.03.2017 09:16 7,4 C 63 % 1005,8 hPa 0,0 l/m 17,7 km/h (3 Bft) W-SW 239 2 min 0,000 mm 0,7 UV-I 374 W/m 0,8 C 0,8 C 30,6 km/h (5 Bft) 98,11 %
06.03.2017 09:18 7,5 C 64 % 1005,8 hPa 0,0 l/m 16,9 km/h (3 Bft) W-NW 283 2 min 0,000 mm 0,7 UV-I 351 W/m 1,1 C 1,3 C 22,5 km/h (4 Bft) 100,00 %
06.03.2017 09:20 7,6 C 62 % 1005,7 hPa 0,0 l/m 22,3 km/h (4 Bft) W-SW 249 2 min 0,000 mm 0,7 UV-I 388 W/m 0,8 C -0,6 C 32,2 km/h (5 Bft) 97,50 %
06.03.2017 09:22 7,6 C 62 % 1005,8 hPa 0,0 l/m 21,7 km/h (4 Bft) W-SW 243 2 min 0,000 mm 0,7 UV-I 390 W/m 0,8 C -0,4 C 33,8 km/h (5 Bft) 97,87 %
06.03.2017 09:24 7,6 C 62 % 1005,7 hPa 0,0 l/m 20,4 km/h (4 Bft) W 273 2 min 0,000 mm 0,7 UV-I 398 W/m 0,8 C 0,0 C 29,0 km/h (5 Bft) 100,00 %
06.03.2017 09:26 7,6 C 60 % 1005,7 hPa 0,0 l/m 24,1 km/h (4 Bft) W 260 2 min 0,000 mm 0,7 UV-I 361 W/m 0,3 C -1,2 C 35,4 km/h (5 Bft) 98,11 %
06.03.2017 09:28 7,6 C 60 % 1005,7 hPa 0,0 l/m 20,1 km/h (4 Bft) SW 217 2 min 0,000 mm 0,8 UV-I 440 W/m 0,3 C 0,2 C 29,0 km/h (5 Bft) 97,56 %
06.03.2017 09:30 7,7 C 61 % 1005,7 hPa 0,0 l/m 19,6 km/h (3 Bft) W 261 2 min 0,000 mm 0,7 UV-I 417 W/m 0,7 C 0,5 C 35,4 km/h (5 Bft) 98,00 %
06.03.2017 09:32 7,6 C 58 % 1005,7 hPa 0,0 l/m 28,3 km/h (4 Bft) W-SW 244 0 min 0,000 mm 0,7 UV-I 232 W/m -0,1 C -2,3 C 38,6 km/h (5 Bft) 100,00 %
06.03.2017 09:34 7,5 C 59 % 1005,7 hPa 0,0 l/m 24,5 km/h (4 Bft) W-SW 243 2 min 0,000 mm 0,7 UV-I 269 W/m 0,0 C -1,4 C 35,4 km/h (5 Bft) 94,74 %
06.03.2017 09:36 7,5 C 59 % 1005,7 hPa 0,0 l/m 22,7 km/h (4 Bft) W 273 2 min 0,000 mm 0,8 UV-I 423 W/m 0,0 C -0,9 C 33,8 km/h (5 Bft) 100,00 %
06.03.2017 09:38 7,5 C 61 % 1005,7 hPa 0,0 l/m 16,9 km/h (3 Bft) W-SW 241 2 min 0,000 mm 0,8 UV-I 346 W/m 0,5 C 1,3 C 27,4 km/h (4 Bft) 96,00 %
06.03.2017 09:40 7,6 C 60 % 1005,7 hPa 0,0 l/m 20,2 km/h (4 Bft) W-SW 237 2 min 0,000 mm 0,8 UV-I 297 W/m 0,3 C 0,1 C 33,8 km/h (5 Bft) 100,00 %
06.03.2017 09:42 7,6 C 59 % 1005,7 hPa 0,0 l/m 21,6 km/h (4 Bft) W-SW 257 2 min 0,000 mm 0,9 UV-I 389 W/m 0,1 C -0,4 C 35,4 km/h (5 Bft) 96,88 %
06.03.2017 09:44 7,7 C 59 % 1005,6 hPa 0,0 l/m 20,5 km/h (4 Bft) W-SW 257 2 min 0,000 mm 0,9 UV-I 510 W/m 0,2 C 0,1 C 29,0 km/h (5 Bft) 95,45 %
06.03.2017 09:46 7,8 C 59 % 1005,6 hPa 0,0 l/m 19,4 km/h (3 Bft) S-SW 211 2 min 0,000 mm 0,9 UV-I 522 W/m 0,3 C 0,7 C 27,4 km/h (4 Bft) 96,30 %
06.03.2017 09:49 7,9 C 58 % 1005,6 hPa 0,0 l/m 17,9 km/h (3 Bft) W 263 3 min 0,000 mm 1,0 UV-I 520 W/m 0,2 C 1,4 C 29,0 km/h (5 Bft) 97,94 %
06.03.2017 09:50 7,9 C 58 % 1005,6 hPa 0,0 l/m 13,1 km/h (3 Bft) SW 236 1 min 0,000 mm 1,0 UV-I 511 W/m 0,2 C 3,5 C 19,3 km/h (3 Bft) 100,00 %
06.03.2017 09:52 8,1 C 59 % 1005,6 hPa 0,0 l/m 11,5 km/h (2 Bft) S-SW 211 2 min 0,000 mm 1,0 UV-I 529 W/m 0,6 C 4,6 C 16,1 km/h (3 Bft) 100,00 %
06.03.2017 09:54 8,2 C 58 % 1005,6 hPa 0,0 l/m 21,4 km/h (4 Bft) W-SW 257 2 min 0,000 mm 1,1 UV-I 529 W/m 0,4 C 0,5 C 29,0 km/h (5 Bft) 97,56 %
06.03.2017 09:56 8,3 C 58 % 1005,6 hPa 0,0 l/m 18,2 km/h (3 Bft) SW 220 2 min 0,000 mm 1,1 UV-I 558 W/m 0,5 C 1,7 C 29,0 km/h (5 Bft) 96,23 %
06.03.2017 09:59 8,4 C 57 % 1005,6 hPa 0,0 l/m 19,7 km/h (3 Bft) SW 214 3 min 0,000 mm 1,2 UV-I 643 W/m 0,4 C 1,3 C 29,0 km/h (5 Bft) 97,01 %
06.03.2017 10:00 8,6 C 57 % 1005,5 hPa 0,0 l/m 22,4 km/h (4 Bft) W-SW 252 1 min 0,000 mm 1,2 UV-I 675 W/m 0,6 C 0,7 C 32,2 km/h (5 Bft) 93,33 %
06.03.2017 10:02 8,6 C 56 % 1005,5 hPa 0,0 l/m 20,1 km/h (4 Bft) W-SW 249 2 min 0,254 mm 0,9 UV-I 486 W/m 0,3 C 1,4 C 27,4 km/h (4 Bft) 96,43 %
06.03.2017 10:04 8,6 C 57 % 1005,6 hPa 0,0 l/m 14,9 km/h (3 Bft) W-NW 282 2 min 0,000 mm 0,8 UV-I 409 W/m 0,6 C 3,5 C 20,9 km/h (4 Bft) 92,68 %
06.03.2017 10:06 8,6 C 56 % 1005,5 hPa 0,0 l/m 16,3 km/h (3 Bft) W 271 0 min 0,000 mm 0,7 UV-I 268 W/m 0,3 C 2,9 C 33,8 km/h (5 Bft) 93,62 %
06.03.2017 10:08 8,4 C 55 % 1005,4 hPa 0,0 l/m 24,8 km/h (4 Bft) W-SW 243 2 min 0,000 mm 0,7 UV-I 283 W/m -0,1 C -0,3 C 41,8 km/h (6 Bft) 96,23 %
06.03.2017 10:10 8,4 C 56 % 1005,4 hPa 0,0 l/m 21,4 km/h (4 Bft) W-SW 242 2 min 0,000 mm 0,9 UV-I 310 W/m 0,1 C 0,7 C 30,6 km/h (5 Bft) 96,55 %
06.03.2017 10:12 8,4 C 56 % 1005,4 hPa 0,0 l/m 21,9 km/h (4 Bft) W 273 2 min 0,000 mm 0,8 UV-I 293 W/m 0,1 C 0,6 C 29,0 km/h (5 Bft) 96,23 %
06.03.2017 10:14 8,4 C 55 % 1005,4 hPa 0,0 l/m 17,5 km/h (3 Bft) W 273 2 min 0,000 mm 1,0 UV-I 316 W/m -0,1 C 2,1 C 22,5 km/h (4 Bft) 93,22 %
06.03.2017 10:16 8,6 C 56 % 1005,3 hPa 0,0 l/m 13,9 km/h (3 Bft) W-SW 252 2 min 0,000 mm 0,9 UV-I 321 W/m 0,3 C 3,9 C 20,9 km/h (4 Bft) 97,73 %
06.03.2017 10:18 8,7 C 55 % 1005,4 hPa 0,0 l/m 17,5 km/h (3 Bft) W-SW 257 0 min 0,000 mm 0,9 UV-I 272 W/m 0,2 C 2,5 C 30,6 km/h (5 Bft) 95,12 %
06.03.2017 10:20 8,7 C 54 % 1005,2 hPa 0,0 l/m 19,6 km/h (3 Bft) W-SW 257 2 min 0,000 mm 1,2 UV-I 330 W/m -0,1 C 1,7 C 29,0 km/h (5 Bft) 94,64 %
06.03.2017 10:22 8,9 C 54 % 1005,3 hPa 0,0 l/m 22,9 km/h (4 Bft) SW 235 2 min 0,000 mm 1,2 UV-I 433 W/m 0,1 C 0,9 C 32,2 km/h (5 Bft) 92,68 %
06.03.2017 10:24 8,9 C 52 % 1005,2 hPa 0,0 l/m 20,2 km/h (4 Bft) W-SW 251 2 min 0,000 mm 0,9 UV-I 355 W/m -0,4 C 1,8 C 30,6 km/h (5 Bft) 97,87 %
06.03.2017 10:26 8,8 C 54 % 1005,2 hPa 0,0 l/m 15,2 km/h (3 Bft) W-SW 244 0 min 0,000 mm 0,5 UV-I 203 W/m 0,0 C 3,6 C 22,5 km/h (4 Bft) 97,62 %
06.03.2017 10:29 8,7 C 55 % 1005,3 hPa 0,0 l/m 19,5 km/h (3 Bft) W-SW 256 0 min 0,000 mm 0,5 UV-I 180 W/m 0,2 C 1,8 C 29,0 km/h (5 Bft) 98,63 %
06.03.2017 10:30 8,7 C 55 % 1005,3 hPa 0,0 l/m 19,2 km/h (3 Bft) W-SW 249 0 min 0,000 mm 0,6 UV-I 210 W/m 0,2 C 1,9 C 32,2 km/h (5 Bft) 100,00 %
06.03.2017 10:32 8,5 C 54 % 1005,2 hPa 0,0 l/m 21,2 km/h (4 Bft) W-SW 248 0 min 0,000 mm 0,7 UV-I 224 W/m -0,3 C 0,9 C 29,0 km/h (5 Bft) 100,00 %
06.03.2017 10:34 8,4 C 55 % 1005,2 hPa 0,0 l/m 20,0 km/h (4 Bft) W-SW 244 0 min 0,000 mm 0,8 UV-I 239 W/m -0,1 C 1,2 C 30,6 km/h (5 Bft) 96,23 %
06.03.2017 10:36 8,4 C 55 % 1005,2 hPa 0,0 l/m 22,1 km/h (4 Bft) W-SW 250 0 min 0,000 mm 0,8 UV-I 214 W/m -0,1 C 0,5 C 29,0 km/h (5 Bft) 95,45 %
06.03.2017 10:39 8,3 C 56 % 1005,2 hPa 0,0 l/m 25,3 km/h (4 Bft) W 261 0 min 0,000 mm 0,9 UV-I 233 W/m 0,0 C -0,6 C 43,5 km/h (6 Bft) 97,37 %
06.03.2017 10:40 8,2 C 56 % 1005,2 hPa 0,0 l/m 25,7 km/h (4 Bft) W-SW 252 0 min 0,000 mm 1,0 UV-I 267 W/m -0,0 C -0,8 C 30,6 km/h (5 Bft) 100,00 %
06.03.2017 10:42 8,2 C 56 % 1005,3 hPa 0,0 l/m 20,9 km/h (4 Bft) W-NW 294 0 min 0,000 mm 1,1 UV-I 274 W/m -0,0 C 0,7 C 33,8 km/h (5 Bft) 97,73 %
06.03.2017 10:44 8,4 C 59 % 1005,4 hPa 0,0 l/m 21,5 km/h (4 Bft) W-SW 242 0 min 0,000 mm 1,3 UV-I 274 W/m 0,9 C 0,7 C 33,8 km/h (5 Bft) 94,74 %
06.03.2017 10:46 8,4 C 59 % 1005,3 hPa 0,0 l/m 23,1 km/h (4 Bft) W 270 2 min 0,000 mm 1,2 UV-I 469 W/m 0,9 C 0,2 C 32,2 km/h (5 Bft) 98,21 %
06.03.2017 10:48 8,4 C 59 % 1005,3 hPa 0,0 l/m 31,4 km/h (5 Bft) W 264 2 min 0,000 mm 1,1 UV-I 368 W/m 0,9 C -1,9 C 45,1 km/h (6 Bft) 100,00 %
06.03.2017 10:50 8,3 C 60 % 1005,4 hPa 0,0 l/m 19,8 km/h (3 Bft) SW 221 2 min 0,000 mm 1,1 UV-I 353 W/m 1,0 C 1,2 C 32,2 km/h (5 Bft) 96,00 %
06.03.2017 10:52 8,2 C 61 % 1005,3 hPa 0,0 l/m 20,8 km/h (4 Bft) W 260 2 min 0,000 mm 1,4 UV-I 412 W/m 1,1 C 0,7 C 33,8 km/h (5 Bft) 100,00 %
06.03.2017 10:54 8,2 C 62 % 1005,3 hPa 0,0 l/m 17,9 km/h (3 Bft) W 267 2 min 0,000 mm 1,1 UV-I 370 W/m 1,4 C 1,7 C 27,4 km/h (4 Bft) 94,74 %
06.03.2017 10:56 8,2 C 62 % 1005,3 hPa 0,0 l/m 17,3 km/h (3 Bft) W-SW 246 0 min 0,000 mm 1,0 UV-I 281 W/m 1,4 C 2,0 C 25,7 km/h (4 Bft) 100,00 %
06.03.2017 10:58 8,2 C 62 % 1005,2 hPa 0,0 l/m 11,1 km/h (2 Bft) SW 229 0 min 0,000 mm 1,1 UV-I 293 W/m 1,4 C 4,9 C 17,7 km/h (3 Bft) 92,11 %
06.03.2017 11:00 8,2 C 63 % 1005,2 hPa 0,0 l/m 9,2 km/h (2 Bft) W-SW 250 2 min 0,228 mm 1,1 UV-I 344 W/m 1,6 C 6,1 C 14,5 km/h (3 Bft) 100,00 %
06.03.2017 11:02 8,3 C 63 % 1005,2 hPa 0,0 l/m 12,3 km/h (3 Bft) W 270 2 min 0,000 mm 1,2 UV-I 327 W/m 1,7 C 4,4 C 24,1 km/h (4 Bft) 97,56 %
06.03.2017 11:04 8,3 C 62 % 1005,2 hPa 0,0 l/m 19,8 km/h (3 Bft) W 266 2 min 0,000 mm 1,3 UV-I 492 W/m 1,5 C 1,2 C 33,8 km/h (5 Bft) 95,24 %
06.03.2017 11:06 8,3 C 61 % 1005,1 hPa 0,0 l/m 19,5 km/h (3 Bft) SW 236 0 min 0,000 mm 1,2 UV-I 313 W/m 1,2 C 1,3 C 40,2 km/h (6 Bft) 100,00 %
06.03.2017 11:08 8,3 C 62 % 1005,1 hPa 0,0 l/m 18,5 km/h (3 Bft) W 276 2 min 0,000 mm 1,4 UV-I 385 W/m 1,5 C 1,6 C 29,0 km/h (5 Bft) 97,87 %
06.03.2017 11:10 8,5 C 59 % 1005,1 hPa 0,0 l/m 19,0 km/h (3 Bft) SW 218 2 min 0,000 mm 1,5 UV-I 706 W/m 1,0 C 1,7 C 30,6 km/h (5 Bft) 100,00 %
06.03.2017 11:12 8,6 C 61 % 1005,0 hPa 0,0 l/m 22,6 km/h (4 Bft) SW 227 2 min 0,000 mm 1,6 UV-I 745 W/m 1,5 C 0,6 C 30,6 km/h (5 Bft) 98,00 %
06.03.2017 11:14 8,8 C 59 % 1005,1 hPa 0,0 l/m 24,9 km/h (4 Bft) W-SW 248 2 min 0,000 mm 1,6 UV-I 675 W/m 1,2 C 0,2 C 37,0 km/h (5 Bft) 100,00 %
06.03.2017 11:16 8,8 C 58 % 1005,0 hPa 0,0 l/m 24,0 km/h (4 Bft) W-SW 245 2 min 0,000 mm 1,5 UV-I 678 W/m 1,0 C 0,5 C 35,4 km/h (5 Bft) 98,21 %
06.03.2017 11:18 8,7 C 59 % 1005,0 hPa 0,0 l/m 31,6 km/h (5 Bft) SW 234 2 min 0,000 mm 1,2 UV-I 717 W/m 1,1 C -1,5 C 46,7 km/h (6 Bft) 96,00 %
06.03.2017 11:20 8,5 C 60 % 1005,0 hPa 0,0 l/m 33,8 km/h (5 Bft) W-SW 248 0 min 0,000 mm 0,9 UV-I 285 W/m 1,2 C -2,3 C 43,5 km/h (6 Bft) 94,74 %
06.03.2017 11:22 8,1 C 61 % 1005,0 hPa 0,0 l/m 22,8 km/h (4 Bft) W 268 0 min 0,000 mm 0,9 UV-I 238 W/m 1,0 C -0,1 C 32,2 km/h (5 Bft) 96,43 %
06.03.2017 11:24 7,8 C 63 % 1005,0 hPa 0,0 l/m 22,5 km/h (4 Bft) W-NW 287 0 min 0,000 mm 1,1 UV-I 265 W/m 1,2 C -0,4 C 29,0 km/h (5 Bft) 95,74 %
06.03.2017 11:26 7,8 C 64 % 1004,9 hPa 0,0 l/m 23,5 km/h (4 Bft) SW 234 0 min 0,000 mm 1,3 UV-I 281 W/m 1,4 C -0,7 C 33,8 km/h (5 Bft) 90,24 %
06.03.2017 11:28 7,7 C 63 % 1004,9 hPa 0,0 l/m 16,8 km/h (3 Bft) SW 226 0 min 0,000 mm 1,2 UV-I 256 W/m 1,1 C 1,6 C 25,7 km/h (4 Bft) 96,23 %
06.03.2017 11:30 7,8 C 64 % 1004,9 hPa 0,0 l/m 19,1 km/h (3 Bft) SW 236 0 min 0,000 mm 1,3 UV-I 242 W/m 1,4 C 0,8 C 33,8 km/h (5 Bft) 100,00 %
06.03.2017 11:32 8,0 C 65 % 1004,9 hPa 0,0 l/m 21,8 km/h (4 Bft) W-SW 252 2 min 0,000 mm 1,8 UV-I 583 W/m 1,8 C 0,1 C 32,2 km/h (5 Bft) 94,34 %
06.03.2017 11:34 8,1 C 64 % 1004,8 hPa 0,0 l/m 25,1 km/h (4 Bft) W-SW 252 2 min 0,000 mm 1,8 UV-I 658 W/m 1,7 C -0,8 C 37,0 km/h (5 Bft) 97,37 %
06.03.2017 11:36 8,2 C 65 % 1004,9 hPa 0,0 l/m 20,3 km/h (4 Bft) SW 224 2 min 0,000 mm 1,8 UV-I 672 W/m 2,0 C 0,9 C 32,2 km/h (5 Bft) 96,23 %
06.03.2017 11:38 8,4 C 65 % 1004,9 hPa 0,0 l/m 18,6 km/h (3 Bft) SW 225 2 min 0,000 mm 1,8 UV-I 670 W/m 2,2 C 1,7 C 25,7 km/h (4 Bft) 95,45 %
06.03.2017 11:40 8,4 C 62 % 1004,9 hPa 0,0 l/m 27,0 km/h (4 Bft) W-SW 246 2 min 0,000 mm 1,8 UV-I 682 W/m 1,6 C -0,9 C 37,0 km/h (5 Bft) 95,24 %
06.03.2017 11:42 8,4 C 63 % 1004,9 hPa 0,0 l/m 22,0 km/h (4 Bft) SW 224 2 min 0,000 mm 1,8 UV-I 695 W/m 1,8 C 0,6 C 35,4 km/h (5 Bft) 87,27 %
06.03.2017 11:44 8,6 C 63 % 1004,9 hPa 0,0 l/m 24,2 km/h (4 Bft) W-SW 245 2 min 0,000 mm 1,7 UV-I 726 W/m 2,0 C 0,2 C 40,2 km/h (6 Bft) 94,00 %
06.03.2017 11:46 8,6 C 63 % 1004,9 hPa 0,0 l/m 21,7 km/h (4 Bft) W-SW 257 2 min 0,000 mm 1,4 UV-I 532 W/m 2,0 C 0,9 C 32,2 km/h (5 Bft) 94,87 %
06.03.2017 11:48 8,7 C 63 % 1004,9 hPa 0,0 l/m 20,6 km/h (4 Bft) W 269 2 min 0,000 mm 1,6 UV-I 671 W/m 2,1 C 1,4 C 33,8 km/h (5 Bft) 95,74 %
06.03.2017 11:50 8,6 C 63 % 1004,8 hPa 0,0 l/m 15,7 km/h (3 Bft) W-SW 242 2 min 0,000 mm 1,3 UV-I 413 W/m 2,0 C 3,1 C 22,5 km/h (4 Bft) 92,86 %
06.03.2017 11:52 8,6 C 62 % 1004,8 hPa 0,0 l/m 16,6 km/h (3 Bft) W-SW 249 2 min 0,000 mm 1,1 UV-I 344 W/m 1,7 C 2,8 C 27,4 km/h (4 Bft) 95,45 %
06.03.2017 11:54 8,6 C 62 % 1004,8 hPa 0,0 l/m 22,7 km/h (4 Bft) W 273 0 min 0,000 mm 1,1 UV-I 316 W/m 1,7 C 0,6 C 30,6 km/h (5 Bft) 95,12 %
06.03.2017 11:56 8,4 C 61 % 1004,8 hPa 0,0 l/m 20,7 km/h (4 Bft) W-SW 246 2 min 0,000 mm 1,2 UV-I 335 W/m 1,3 C 1,0 C 33,8 km/h (5 Bft) 92,00 %
06.03.2017 11:58 8,5 C 63 % 1004,8 hPa 0,0 l/m 19,8 km/h (3 Bft) SW 229 0 min 0,000 mm 1,1 UV-I 285 W/m 1,9 C 1,4 C 33,8 km/h (5 Bft) 95,45 %
06.03.2017 12:00 8,3 C 63 % 1004,9 hPa 0,0 l/m 21,2 km/h (4 Bft) W-SW 245 0 min 0,000 mm 1,1 UV-I 256 W/m 1,7 C 0,7 C 33,8 km/h (5 Bft) 94,34 %
06.03.2017 12:02 8,1 C 62 % 1004,8 hPa 0,0 l/m 26,5 km/h (4 Bft) W-SW 237 0 min 0,280 mm 1,1 UV-I 287 W/m 1,3 C -1,2 C 41,8 km/h (6 Bft) 94,74 %
06.03.2017 12:04 7,9 C 63 % 1004,8 hPa 0,0 l/m 25,8 km/h (4 Bft) W-SW 252 2 min 0,000 mm 1,3 UV-I 377 W/m 1,3 C -1,2 C 35,4 km/h (5 Bft) 98,11 %
06.03.2017 12:06 7,9 C 65 % 1004,9 hPa 0,0 l/m 23,2 km/h (4 Bft) SW 229 2 min 0,000 mm 1,3 UV-I 402 W/m 1,7 C -0,5 C 38,6 km/h (5 Bft) 94,74 %
06.03.2017 12:08 7,9 C 66 % 1004,9 hPa 0,0 l/m 17,0 km/h (3 Bft) SW 227 2 min 0,000 mm 1,3 UV-I 343 W/m 1,9 C 1,7 C 24,1 km/h (4 Bft) 96,00 %
06.03.2017 12:11 7,8 C 68 % 1004,7 hPa 0,0 l/m 20,1 km/h (4 Bft) W-SW 251 0 min 0,000 mm 1,3 UV-I 316 W/m 2,3 C 0,4 C 33,8 km/h (5 Bft) 97,18 %
06.03.2017 12:12 7,7 C 68 % 1004,7 hPa 0,0 l/m 25,3 km/h (4 Bft) W-SW 256 1 min 0,000 mm 1,4 UV-I 353 W/m 2,2 C -1,4 C 32,2 km/h (5 Bft) 92,86 %
06.03.2017 12:16 7,4 C 69 % 1004,6 hPa 0,0 l/m 24,9 km/h (4 Bft) SW 220 4 min 0,000 mm 1,5 UV-I 484 W/m 2,1 C -1,7 C 40,2 km/h (6 Bft) 93,58 %
06.03.2017 12:17 7,4 C 69 % 1004,6 hPa 0,0 l/m 25,6 km/h (4 Bft) W-SW 239 1 min 0,000 mm 1,2 UV-I 330 W/m 2,1 C -1,9 C 37,0 km/h (5 Bft) 100,00 %
06.03.2017 12:18 7,3 C 70 % 1004,6 hPa 0,0 l/m 19,1 km/h (3 Bft) W-SW 254 1 min 0,000 mm 1,2 UV-I 336 W/m 2,2 C 0,1 C 25,7 km/h (4 Bft) 95,65 %
06.03.2017 12:20 7,3 C 71 % 1004,6 hPa 0,0 l/m 21,7 km/h (4 Bft) SW 224 2 min 0,000 mm 1,2 UV-I 361 W/m 2,4 C -0,8 C 32,2 km/h (5 Bft) 95,74 %
06.03.2017 12:22 7,3 C 71 % 1004,5 hPa 0,0 l/m 24,9 km/h (4 Bft) W-SW 244 2 min 0,000 mm 1,1 UV-I 412 W/m 2,4 C -1,8 C 32,2 km/h (5 Bft) 94,87 %
06.03.2017 12:24 7,3 C 71 % 1004,4 hPa 0,0 l/m 19,4 km/h (3 Bft) W-SW 251 0 min 0,000 mm 1,0 UV-I 288 W/m 2,4 C 0,0 C 30,6 km/h (5 Bft) 98,18 %
06.03.2017 12:26 7,3 C 71 % 1004,4 hPa 0,0 l/m 19,1 km/h (3 Bft) W 271 0 min 0,000 mm 1,0 UV-I 283 W/m 2,4 C 0,1 C 30,6 km/h (5 Bft) 95,24 %
06.03.2017 12:28 7,3 C 70 % 1004,4 hPa 0,0 l/m 18,3 km/h (3 Bft) SW 227 0 min 0,000 mm 1,0 UV-I 275 W/m 2,2 C 0,4 C 29,0 km/h (5 Bft) 97,87 %
06.03.2017 12:30 7,3 C 69 % 1004,4 hPa 0,0 l/m 18,3 km/h (3 Bft) W-SW 257 0 min 0,000 mm 1,1 UV-I 308 W/m 2,0 C 0,4 C 25,7 km/h (4 Bft) 95,45 %
06.03.2017 12:32 7,3 C 70 % 1004,3 hPa 0,0 l/m 11,8 km/h (2 Bft) S-SW 210 2 min 0,000 mm 1,2 UV-I 341 W/m 2,2 C 3,5 C 19,3 km/h (3 Bft) 94,00 %
06.03.2017 12:34 7,4 C 70 % 1004,3 hPa 0,0 l/m 12,5 km/h (3 Bft) SW 230 2 min 0,000 mm 1,2 UV-I 338 W/m 2,3 C 3,2 C 22,5 km/h (4 Bft) 96,00 %
06.03.2017 12:36 7,3 C 70 % 1004,3 hPa 0,0 l/m 13,9 km/h (3 Bft) SW 225 2 min 0,000 mm 1,2 UV-I 333 W/m 2,2 C 2,4 C 22,5 km/h (4 Bft) 97,56 %
06.03.2017 12:38 7,3 C 70 % 1004,2 hPa 0,0 l/m 11,9 km/h (2 Bft) W 273 2 min 0,000 mm 1,3 UV-I 384 W/m 2,2 C 3,5 C 19,3 km/h (3 Bft) 95,12 %
06.03.2017 12:40 7,6 C 69 % 1004,3 hPa 0,0 l/m 15,8 km/h (3 Bft) W 270 2 min 0,000 mm 1,4 UV-I 443 W/m 2,3 C 1,9 C 24,1 km/h (4 Bft) 93,22 %
06.03.2017 12:42 7,7 C 68 % 1004,2 hPa 0,0 l/m 13,1 km/h (3 Bft) SW 218 2 min 0,000 mm 1,4 UV-I 442 W/m 2,2 C 3,3 C 19,3 km/h (3 Bft) 97,37 %
06.03.2017 12:44 7,9 C 68 % 1004,1 hPa 0,0 l/m 13,6 km/h (3 Bft) W 267 2 min 0,000 mm 1,3 UV-I 401 W/m 2,4 C 3,3 C 22,5 km/h (4 Bft) 98,00 %
06.03.2017 12:46 8,1 C 67 % 1004,1 hPa 0,0 l/m 11,1 km/h (2 Bft) W-SW 245 2 min 0,000 mm 1,3 UV-I 379 W/m 2,3 C 4,8 C 14,5 km/h (3 Bft) 98,11 %
06.03.2017 12:48 8,2 C 66 % 1004,0 hPa 0,0 l/m 10,5 km/h (2 Bft) W-SW 246 2 min 0,000 mm 1,4 UV-I 488 W/m 2,2 C 5,3 C 17,7 km/h (3 Bft) 93,62 %
06.03.2017 12:50 8,4 C 66 % 1004,0 hPa 0,0 l/m 10,8 km/h (2 Bft) S-SW 205 2 min 0,000 mm 1,9 UV-I 602 W/m 2,4 C 5,3 C 20,9 km/h (4 Bft) 95,12 %
06.03.2017 12:52 8,6 C 65 % 1003,9 hPa 0,0 l/m 14,6 km/h (3 Bft) SW 222 2 min 0,000 mm 1,7 UV-I 772 W/m 2,4 C 3,6 C 20,9 km/h (4 Bft) 98,00 %
06.03.2017 12:54 8,7 C 64 % 1003,8 hPa 0,0 l/m 13,3 km/h (3 Bft) W-SW 250 2 min 0,000 mm 1,6 UV-I 489 W/m 2,3 C 4,4 C 17,7 km/h (3 Bft) 95,45 %
06.03.2017 12:56 8,8 C 63 % 1003,8 hPa 0,0 l/m 14,4 km/h (3 Bft) SW 221 2 min 0,000 mm 1,6 UV-I 525 W/m 2,2 C 4,0 C 20,9 km/h (4 Bft) 92,68 %
06.03.2017 12:58 8,9 C 63 % 1003,9 hPa 0,0 l/m 11,2 km/h (2 Bft) W-SW 239 2 min 0,000 mm 1,6 UV-I 473 W/m 2,2 C 5,7 C 27,4 km/h (4 Bft) 94,74 %
06.03.2017 13:00 9,0 C 60 % 1003,7 hPa 0,0 l/m 22,5 km/h (4 Bft) W-NW 289 2 min 0,228 mm 1,6 UV-I 501 W/m 1,7 C 1,2 C 32,2 km/h (5 Bft) 97,44 %
06.03.2017 13:02 9,0 C 59 % 1003,6 hPa 0,0 l/m 18,6 km/h (3 Bft) W 259 2 min 0,000 mm 1,6 UV-I 602 W/m 1,4 C 2,5 C 27,4 km/h (4 Bft) 95,74 %
06.03.2017 13:04 9,1 C 59 % 1003,6 hPa 0,0 l/m 15,4 km/h (3 Bft) W 275 2 min 0,000 mm 1,6 UV-I 570 W/m 1,5 C 3,9 C 22,5 km/h (4 Bft) 100,00 %
06.03.2017 13:06 9,2 C 58 % 1003,5 hPa 0,0 l/m 20,0 km/h (4 Bft) W-SW 255 2 min 0,000 mm 1,4 UV-I 463 W/m 1,4 C 2,3 C 30,6 km/h (5 Bft) 100,00 %
06.03.2017 13:08 9,0 C 58 % 1003,5 hPa 0,0 l/m 14,9 km/h (3 Bft) W 259 2 min 0,000 mm 1,2 UV-I 389 W/m 1,2 C 4,0 C 22,5 km/h (4 Bft) 98,11 %
06.03.2017 13:10 9,0 C 60 % 1003,4 hPa 0,0 l/m 14,1 km/h (3 Bft) W 269 2 min 0,000 mm 1,3 UV-I 374 W/m 1,7 C 4,3 C 20,9 km/h (4 Bft) 100,00 %
06.03.2017 13:12 9,0 C 60 % 1003,4 hPa 0,0 l/m 12,0 km/h (2 Bft) SW 227 2 min 0,000 mm 1,2 UV-I 341 W/m 1,7 C 5,4 C 20,9 km/h (4 Bft) 97,87 %
06.03.2017 13:14 9,0 C 60 % 1003,3 hPa 0,0 l/m 11,1 km/h (2 Bft) W-SW 252 2 min 0,000 mm 1,1 UV-I 331 W/m 1,7 C 5,9 C 19,3 km/h (3 Bft) 95,45 %
06.03.2017 13:16 9,0 C 59 % 1003,4 hPa 0,0 l/m 15,2 km/h (3 Bft) SW 232 2 min 0,000 mm 1,2 UV-I 388 W/m 1,4 C 3,8 C 24,1 km/h (4 Bft) 93,62 %
06.03.2017 13:18 9,1 C 59 % 1003,3 hPa 0,0 l/m 13,4 km/h (3 Bft) W-SW 250 2 min 0,000 mm 1,3 UV-I 457 W/m 1,5 C 4,8 C 17,7 km/h (3 Bft) 92,86 %
06.03.2017 13:20 9,2 C 59 % 1003,2 hPa 0,0 l/m 14,1 km/h (3 Bft) W-SW 243 2 min 0,000 mm 1,2 UV-I 375 W/m 1,6 C 4,6 C 19,3 km/h (3 Bft) 97,14 %
06.03.2017 13:22 9,2 C 61 % 1003,1 hPa 0,0 l/m 10,3 km/h (2 Bft) W 262 2 min 0,000 mm 1,2 UV-I 345 W/m 2,1 C 6,5 C 16,1 km/h (3 Bft) 91,07 %
06.03.2017 13:24 9,2 C 60 % 1003,0 hPa 0,0 l/m 10,3 km/h (2 Bft) W-SW 238 2 min 0,000 mm 1,2 UV-I 334 W/m 1,8 C 6,5 C 16,1 km/h (3 Bft) 95,45 %
06.03.2017 13:26 9,2 C 60 % 1003,0 hPa 0,0 l/m 12,9 km/h (3 Bft) W-SW 237 2 min 0,000 mm 1,2 UV-I 349 W/m 1,8 C 5,1 C 22,5 km/h (4 Bft) 95,12 %
06.03.2017 13:28 9,3 C 59 % 1003,1 hPa 0,0 l/m 13,4 km/h (3 Bft) W-SW 243 2 min 0,000 mm 1,2 UV-I 400 W/m 1,7 C 5,0 C 22,5 km/h (4 Bft) 96,43 %
06.03.2017 13:30 9,3 C 59 % 1003,0 hPa 0,0 l/m 14,5 km/h (3 Bft) SW 217 2 min 0,000 mm 1,2 UV-I 395 W/m 1,7 C 4,5 C 22,5 km/h (4 Bft) 98,00 %
06.03.2017 13:32 9,2 C 57 % 1002,9 hPa 0,0 l/m 14,7 km/h (3 Bft) W 262 2 min 0,000 mm 1,3 UV-I 414 W/m 1,1 C 4,3 C 24,1 km/h (4 Bft) 95,74 %
06.03.2017 13:34 9,2 C 57 % 1002,9 hPa 0,0 l/m 16,4 km/h (3 Bft) W 270 2 min 0,000 mm 1,2 UV-I 338 W/m 1,1 C 3,6 C 30,6 km/h (5 Bft) 97,37 %
06.03.2017 13:36 9,2 C 60 % 1002,9 hPa 0,0 l/m 8,9 km/h (2 Bft) W-NW 289 2 min 0,000 mm 1,2 UV-I 390 W/m 1,8 C 7,4 C 17,7 km/h (3 Bft) 96,23 %
06.03.2017 13:38 9,3 C 59 % 1002,8 hPa 0,0 l/m 14,9 km/h (3 Bft) W-SW 245 2 min 0,000 mm 1,2 UV-I 332 W/m 1,7 C 4,3 C 25,7 km/h (4 Bft) 92,68 %
06.03.2017 13:40 9,3 C 58 % 1002,8 hPa 0,0 l/m 17,7 km/h (3 Bft) W-SW 243 2 min 0,000 mm 1,2 UV-I 399 W/m 1,5 C 3,2 C 25,7 km/h (4 Bft) 97,78 %
06.03.2017 13:42 9,4 C 59 % 1002,7 hPa 0,0 l/m 11,9 km/h (2 Bft) W 267 2 min 0,000 mm 1,4 UV-I 487 W/m 1,8 C 5,9 C 20,9 km/h (4 Bft) 96,36 %
06.03.2017 13:44 9,7 C 58 % 1002,7 hPa 0,0 l/m 10,8 km/h (2 Bft) W-SW 242 2 min 0,000 mm 1,6 UV-I 683 W/m 1,8 C 6,8 C 17,7 km/h (3 Bft) 100,00 %
06.03.2017 13:46 9,9 C 57 % 1002,7 hPa 0,0 l/m 14,3 km/h (3 Bft) W-SW 242 2 min 0,000 mm 1,6 UV-I 717 W/m 1,8 C 5,3 C 22,5 km/h (4 Bft) 100,00 %
06.03.2017 13:48 10,0 C 55 % 1002,7 hPa 0,0 l/m 18,7 km/h (3 Bft) W 268 2 min 0,000 mm 1,3 UV-I 696 W/m 1,4 C 3,7 C 25,7 km/h (4 Bft) 96,43 %
06.03.2017 13:50 9,9 C 56 % 1002,6 hPa 0,0 l/m 16,1 km/h (3 Bft) W-SW 257 2 min 0,000 mm 1,5 UV-I 687 W/m 1,5 C 4,6 C 24,1 km/h (4 Bft) 96,23 %
06.03.2017 13:52 9,9 C 55 % 1002,5 hPa 0,0 l/m 16,2 km/h (3 Bft) W 259 2 min 0,000 mm 1,2 UV-I 467 W/m 1,3 C 4,5 C 22,5 km/h (4 Bft) 100,00 %
06.03.2017 13:54 9,7 C 56 % 1002,5 hPa 0,0 l/m 16,3 km/h (3 Bft) W-SW 252 0 min 0,000 mm 1,0 UV-I 234 W/m 1,4 C 4,2 C 20,9 km/h (4 Bft) 100,00 %
06.03.2017 13:56 9,7 C 56 % 1002,5 hPa 0,0 l/m 10,8 km/h (2 Bft) W-SW 248 0 min 0,000 mm 1,2 UV-I 264 W/m 1,4 C 6,8 C 19,3 km/h (3 Bft) 100,00 %
06.03.2017 13:58 9,7 C 56 % 1002,4 hPa 0,0 l/m 10,3 km/h (2 Bft) W-NW 284 2 min 0,000 mm 1,1 UV-I 416 W/m 1,4 C 7,1 C 20,9 km/h (4 Bft) 100,00 %
06.03.2017 14:00 9,7 C 55 % 1002,4 hPa 0,0 l/m 10,9 km/h (2 Bft) W-SW 256 2 min 0,254 mm 1,1 UV-I 378 W/m 1,1 C 6,8 C 17,7 km/h (3 Bft) 95,74 %
06.03.2017 14:02 9,8 C 57 % 1002,3 hPa 0,0 l/m 4,9 km/h (1 Bft) W 259 2 min 0,000 mm 1,2 UV-I 489 W/m 1,7 C 9,8 C 11,3 km/h (2 Bft) 100,00 %
06.03.2017 14:04 10,1 C 55 % 1002,3 hPa 0,0 l/m 12,6 km/h (3 Bft) NW 304 2 min 0,000 mm 1,1 UV-I 481 W/m 1,5 C 6,3 C 16,1 km/h (3 Bft) 100,00 %
06.03.2017 14:06 10,1 C 54 % 1002,3 hPa 0,0 l/m 8,0 km/h (2 Bft) SW 231 2 min 0,000 mm 0,8 UV-I 317 W/m 1,2 C 9,0 C 17,7 km/h (3 Bft) 100,00 %
06.03.2017 14:08 9,9 C 55 % 1002,3 hPa 0,0 l/m 6,8 km/h (2 Bft) W-NW 287 0 min 0,000 mm 0,7 UV-I 238 W/m 1,3 C 9,6 C 14,5 km/h (3 Bft) 100,00 %
06.03.2017 14:10 9,7 C 56 % 1002,2 hPa 0,0 l/m 7,4 km/h (2 Bft) W-SW 255 0 min 0,000 mm 0,7 UV-I 238 W/m 1,4 C 9,0 C 12,9 km/h (3 Bft) 97,37 %
06.03.2017 14:12 9,6 C 59 % 1002,3 hPa 0,0 l/m 8,9 km/h (2 Bft) N-NW 342 0 min 0,000 mm 0,7 UV-I 255 W/m 2,0 C 7,8 C 17,7 km/h (3 Bft) 100,00 %
06.03.2017 14:14 9,5 C 59 % 1002,3 hPa 0,0 l/m 7,8 km/h (2 Bft) W-SW 255 0 min 0,000 mm 0,6 UV-I 264 W/m 1,9 C 8,5 C 16,1 km/h (3 Bft) 100,00 %
06.03.2017 14:16 9,3 C 62 % 1002,3 hPa 0,0 l/m 9,3 km/h (2 Bft) W-SW 248 2 min 0,000 mm 0,8 UV-I 321 W/m 2,4 C 7,3 C 17,7 km/h (3 Bft) 97,56 %
06.03.2017 14:18 9,2 C 64 % 1002,3 hPa 0,0 l/m 7,9 km/h (2 Bft) W 262 2 min 0,000 mm 1,1 UV-I 507 W/m 2,8 C 8,1 C 12,9 km/h (3 Bft) 98,00 %
06.03.2017 14:20 9,0 C 66 % 1002,3 hPa 0,0 l/m 6,8 km/h (2 Bft) W-SW 241 2 min 0,000 mm 1,1 UV-I 457 W/m 3,0 C 8,7 C 16,1 km/h (3 Bft) 98,00 %
06.03.2017 14:22 8,8 C 70 % 1002,1 hPa 0,0 l/m 1,3 km/h (1 Bft) W-NW 285 2 min 0,000 mm 1,1 UV-I 429 W/m 3,6 C 8,8 C 4,8 km/h (1 Bft) 100,00 %
06.03.2017 14:24 8,8 C 72 % 1002,1 hPa 0,0 l/m 2,4 km/h (1 Bft) W 281 2 min 0,000 mm 1,1 UV-I 432 W/m 4,0 C 8,8 C 4,8 km/h (1 Bft) 100,00 %
06.03.2017 14:26 8,8 C 69 % 1002,0 hPa 0,0 l/m 3,2 km/h (1 Bft) W 275 2 min 0,000 mm 1,1 UV-I 419 W/m 3,4 C 8,8 C 4,8 km/h (1 Bft) 100,00 %
06.03.2017 14:28 8,9 C 68 % 1002,0 hPa 0,0 l/m 5,5 km/h (1 Bft) W-NW 289 2 min 0,000 mm 1,1 UV-I 437 W/m 3,3 C 8,9 C 11,3 km/h (2 Bft) 97,87 %
06.03.2017 14:30 8,9 C 65 % 1002,0 hPa 0,0 l/m 5,1 km/h (1 Bft) W 280 2 min 0,000 mm 1,1 UV-I 471 W/m 2,7 C 8,9 C 11,3 km/h (2 Bft) 97,14 %
06.03.2017 14:32 9,2 C 66 % 1002,1 hPa 0,0 l/m 5,6 km/h (1 Bft) W-SW 252 2 min 0,000 mm 1,1 UV-I 458 W/m 3,2 C 9,2 C 11,3 km/h (2 Bft) 98,00 %
06.03.2017 14:34 9,2 C 66 % 1002,1 hPa 0,0 l/m 6,0 km/h (2 Bft) W-SW 242 2 min 0,000 mm 1,1 UV-I 463 W/m 3,2 C 9,2 C 11,3 km/h (2 Bft) 100,00 %
06.03.2017 14:36 9,1 C 65 % 1002,1 hPa 0,0 l/m 6,4 km/h (2 Bft) W-SW 252 2 min 0,000 mm 1,1 UV-I 368 W/m 2,9 C 9,1 C 11,3 km/h (2 Bft) 90,24 %
06.03.2017 14:38 9,2 C 62 % 1002,0 hPa 0,0 l/m 8,0 km/h (2 Bft) W-SW 242 2 min 0,000 mm 1,0 UV-I 488 W/m 2,3 C 8,0 C 14,5 km/h (3 Bft) 100,00 %
06.03.2017 14:40 9,1 C 64 % 1002,0 hPa 0,0 l/m 6,6 km/h (2 Bft) SW 232 2 min 0,000 mm 1,0 UV-I 437 W/m 2,7 C 9,0 C 9,7 km/h (2 Bft) 100,00 %
06.03.2017 14:42 9,2 C 63 % 1002,0 hPa 0,0 l/m 5,0 km/h (1 Bft) NW 310 2 min 0,000 mm 1,0 UV-I 445 W/m 2,5 C 9,2 C 8,0 km/h (2 Bft) 100,00 %
06.03.2017 14:44 9,2 C 63 % 1002,0 hPa 0,0 l/m 4,4 km/h (1 Bft) W 277 2 min 0,000 mm 1,0 UV-I 439 W/m 2,5 C 9,2 C 9,7 km/h (2 Bft) 100,00 %
06.03.2017 14:46 9,3 C 62 % 1002,0 hPa 0,0 l/m 6,0 km/h (2 Bft) SW 229 2 min 0,000 mm 1,0 UV-I 459 W/m 2,4 C 9,3 C 9,7 km/h (2 Bft) 100,00 %
06.03.2017 14:48 9,4 C 60 % 1001,9 hPa 0,0 l/m 7,7 km/h (2 Bft) S-SW 198 2 min 0,000 mm 1,0 UV-I 471 W/m 2,0 C 8,4 C 12,9 km/h (3 Bft) 96,23 %
06.03.2017 14:50 9,4 C 61 % 1001,9 hPa 0,0 l/m 6,9 km/h (2 Bft) W-NW 292 2 min 0,000 mm 1,0 UV-I 488 W/m 2,3 C 9,0 C 11,3 km/h (2 Bft) 100,00 %
06.03.2017 14:52 9,5 C 58 % 1001,9 hPa 0,0 l/m 5,9 km/h (2 Bft) W-SW 238 2 min 0,000 mm 1,0 UV-I 513 W/m 1,7 C 9,5 C 9,7 km/h (2 Bft) 98,21 %
06.03.2017 14:54 9,7 C 59 % 1001,8 hPa 0,0 l/m 4,8 km/h (1 Bft) W 267 2 min 0,000 mm 1,0 UV-I 484 W/m 2,1 C 9,7 C 6,4 km/h (2 Bft) 95,74 %
06.03.2017 14:56 9,8 C 60 % 1001,8 hPa 0,0 l/m 7,0 km/h (2 Bft) W 267 2 min 0,000 mm 0,9 UV-I 447 W/m 2,4 C 9,4 C 12,9 km/h (3 Bft) 97,56 %
06.03.2017 14:58 9,9 C 57 % 1001,7 hPa 0,0 l/m 5,1 km/h (1 Bft) W-NW 292 2 min 0,000 mm 0,9 UV-I 471 W/m 1,8 C 9,9 C 11,3 km/h (2 Bft) 96,00 %
06.03.2017 15:00 10,0 C 57 % 1001,7 hPa 0,0 l/m 6,2 km/h (2 Bft) W-NW 290 2 min 0,229 mm 0,9 UV-I 425 W/m 1,9 C 10,0 C 11,3 km/h (2 Bft) 95,56 %
06.03.2017 15:02 10,0 C 60 % 1001,6 hPa 0,0 l/m 5,4 km/h (1 Bft) W 275 2 min 0,000 mm 0,8 UV-I 355 W/m 2,6 C 10,0 C 14,5 km/h (3 Bft) 96,15 %
06.03.2017 15:04 9,9 C 60 % 1001,6 hPa 0,0 l/m 4,6 km/h (1 Bft) W-NW 282 2 min 0,000 mm 0,7 UV-I 284 W/m 2,5 C 9,9 C 11,3 km/h (2 Bft) 92,31 %
06.03.2017 15:06 9,9 C 60 % 1001,7 hPa 0,0 l/m 2,3 km/h (1 Bft) W 263 2 min 0,000 mm 0,7 UV-I 275 W/m 2,5 C 9,9 C 12,9 km/h (3 Bft) 97,87 %
06.03.2017 15:08 9,8 C 59 % 1001,7 hPa 0,0 l/m 4,8 km/h (1 Bft) NW 322 2 min 0,000 mm 0,7 UV-I 284 W/m 2,2 C 9,8 C 12,9 km/h (3 Bft) 98,11 %
06.03.2017 15:10 9,7 C 58 % 1001,6 hPa 0,0 l/m 1,4 km/h (1 Bft) W 275 2 min 0,000 mm 0,7 UV-I 251 W/m 1,8 C 9,7 C 4,8 km/h (1 Bft) 97,37 %
06.03.2017 15:12 9,7 C 58 % 1001,6 hPa 0,0 l/m 5,2 km/h (1 Bft) W 266 2 min 0,000 mm 0,6 UV-I 273 W/m 1,8 C 9,7 C 12,9 km/h (3 Bft) 92,45 %
06.03.2017 15:14 9,6 C 58 % 1001,5 hPa 0,0 l/m 4,2 km/h (1 Bft) W-NW 287 2 min 0,000 mm 0,6 UV-I 246 W/m 1,8 C 9,6 C 11,3 km/h (2 Bft) 98,00 %
06.03.2017 15:16 9,6 C 61 % 1001,5 hPa 0,0 l/m 3,3 km/h (1 Bft) N-NW 333 0 min 0,000 mm 0,6 UV-I 179 W/m 2,5 C 9,6 C 6,4 km/h (2 Bft) 95,45 %
06.03.2017 15:18 9,3 C 60 % 1001,4 hPa 0,0 l/m 5,5 km/h (1 Bft) NW 306 0 min 0,000 mm 0,5 UV-I 149 W/m 1,9 C 9,3 C 9,7 km/h (2 Bft) 95,45 %
06.03.2017 15:20 9,1 C 61 % 1001,5 hPa 0,0 l/m 2,8 km/h (1 Bft) N-NW 331 0 min 0,000 mm 0,5 UV-I 147 W/m 2,0 C 9,1 C 4,8 km/h (1 Bft) 97,87 %
06.03.2017 15:22 8,9 C 62 % 1001,5 hPa 0,0 l/m 4,8 km/h (1 Bft) N-NO 27 0 min 0,000 mm 0,5 UV-I 157 W/m 2,0 C 8,9 C 9,7 km/h (2 Bft) 100,00 %
06.03.2017 15:24 8,8 C 62 % 1001,5 hPa 0,0 l/m 3,3 km/h (1 Bft) W-NW 286 0 min 0,000 mm 0,5 UV-I 166 W/m 1,9 C 8,8 C 8,0 km/h (2 Bft) 100,00 %
06.03.2017 15:26 8,7 C 64 % 1001,4 hPa 0,0 l/m 3,1 km/h (1 Bft) N-NW 340 0 min 0,000 mm 0,5 UV-I 167 W/m 2,3 C 8,7 C 6,4 km/h (2 Bft) 100,00 %
06.03.2017 15:28 8,6 C 64 % 1001,4 hPa 0,0 l/m 3,2 km/h (1 Bft) N 355 0 min 0,000 mm 0,5 UV-I 183 W/m 2,2 C 8,6 C 4,8 km/h (1 Bft) 100,00 %
06.03.2017 15:30 8,6 C 67 % 1001,4 hPa 0,0 l/m 2,6 km/h (1 Bft) N 360 0 min 0,000 mm 0,5 UV-I 172 W/m 2,8 C 8,6 C 6,4 km/h (2 Bft) 97,87 %
06.03.2017 15:32 8,6 C 64 % 1001,3 hPa 0,0 l/m 3,0 km/h (1 Bft) NW 310 0 min 0,000 mm 0,5 UV-I 180 W/m 2,2 C 8,6 C 8,0 km/h (2 Bft) 97,87 %
06.03.2017 15:34 8,6 C 67 % 1001,3 hPa 0,0 l/m 2,6 km/h (1 Bft) N 5 0 min 0,000 mm 0,2 UV-I 183 W/m 2,8 C 8,6 C 8,0 km/h (2 Bft) 100,00 %
06.03.2017 15:36 8,6 C 66 % 1001,3 hPa 0,0 l/m 2,8 km/h (1 Bft) N 350 0 min 0,000 mm 0,0 UV-I 182 W/m 2,6 C 8,6 C 6,4 km/h (2 Bft) 100,00 %
06.03.2017 15:38 8,5 C 66 % 1001,2 hPa 0,0 l/m 3,3 km/h (1 Bft) N 9 0 min 0,000 mm 0,0 UV-I 183 W/m 2,5 C 8,5 C 8,0 km/h (2 Bft) 100,00 %
06.03.2017 15:40 8,4 C 67 % 1001,2 hPa 0,0 l/m 4,2 km/h (1 Bft) N-NW 337 0 min 0,000 mm 0,0 UV-I 189 W/m 2,6 C 8,4 C 8,0 km/h (2 Bft) 100,00 %
06.03.2017 15:42 8,4 C 66 % 1001,1 hPa 0,0 l/m 3,0 km/h (1 Bft) N-NO 12 0 min 0,000 mm 0,0 UV-I 185 W/m 2,4 C 8,4 C 6,4 km/h (2 Bft) 100,00 %
06.03.2017 15:44 8,4 C 65 % 1001,1 hPa 0,0 l/m 3,3 km/h (1 Bft) N-NW 347 0 min 0,000 mm 0,0 UV-I 174 W/m 2,2 C 8,4 C 6,4 km/h (2 Bft) 100,00 %
06.03.2017 15:46 8,3 C 66 % 1001,1 hPa 0,0 l/m 2,8 km/h (1 Bft) N-NW 331 0 min 0,000 mm 0,0 UV-I 170 W/m 2,3 C 8,3 C 6,4 km/h (2 Bft) 97,56 %
06.03.2017 15:48 8,2 C 65 % 1001,1 hPa 0,0 l/m 4,2 km/h (1 Bft) N-NO 32 0 min 0,000 mm 0,0 UV-I 180 W/m 2,0 C 8,2 C 12,9 km/h (3 Bft) 100,00 %
06.03.2017 15:50 8,2 C 66 % 1001,1 hPa 0,0 l/m 2,1 km/h (1 Bft) NW 323 0 min 0,000 mm 0,0 UV-I 175 W/m 2,2 C 8,2 C 4,8 km/h (1 Bft) 97,56 %
06.03.2017 15:52 8,2 C 66 % 1001,0 hPa 0,0 l/m 3,4 km/h (1 Bft) N 5 0 min 0,000 mm 0,0 UV-I 163 W/m 2,2 C 8,2 C 8,0 km/h (2 Bft) 100,00 %
06.03.2017 15:54 8,1 C 65 % 1000,9 hPa 0,0 l/m 2,1 km/h (1 Bft) NW 319 0 min 0,000 mm 0,0 UV-I 152 W/m 1,9 C 8,1 C 6,4 km/h (2 Bft) 97,37 %
06.03.2017 15:56 8,1 C 66 % 1000,9 hPa 0,0 l/m 1,5 km/h (1 Bft) N-NO 17 0 min 0,000 mm 0,0 UV-I 147 W/m 2,1 C 8,1 C 4,8 km/h (1 Bft) 100,00 %
06.03.2017 15:58 8,1 C 67 % 1000,9 hPa 0,0 l/m 1,9 km/h (1 Bft) N-NO 12 0 min 0,000 mm 0,0 UV-I 142 W/m 2,3 C 8,1 C 3,2 km/h (1 Bft) 100,00 %
06.03.2017 16:00 8,1 C 66 % 1000,9 hPa 0,0 l/m 1,5 km/h (1 Bft) N 5 0 min 0,102 mm 0,0 UV-I 134 W/m 2,1 C 8,1 C 4,8 km/h (1 Bft) 100,00 %
06.03.2017 16:02 8,1 C 67 % 1000,9 hPa 0,0 l/m 5,2 km/h (1 Bft) N 10 0 min 0,000 mm 0,0 UV-I 120 W/m 2,3 C 8,1 C 11,3 km/h (2 Bft) 100,00 %
06.03.2017 16:04 8,0 C 68 % 1000,9 hPa 0,0 l/m 2,9 km/h (1 Bft) N-NW 347 0 min 0,000 mm 0,0 UV-I 111 W/m 2,5 C 8,0 C 8,0 km/h (2 Bft) 100,00 %
06.03.2017 16:06 8,0 C 68 % 1000,9 hPa 0,0 l/m 1,4 km/h (1 Bft) N 5 0 min 0,000 mm 0,0 UV-I 101 W/m 2,5 C 8,0 C 3,2 km/h (1 Bft) 100,00 %
06.03.2017 16:08 7,9 C 69 % 1000,9 hPa 0,0 l/m 0,4 km/h (0 Bft) N 360 0 min 0,000 mm 0,0 UV-I 92 W/m 2,6 C 7,9 C 1,6 km/h (1 Bft) 100,00 %
06.03.2017 16:10 7,9 C 69 % 1001,0 hPa 0,0 l/m 2,3 km/h (1 Bft) N-NO 26 0 min 0,000 mm 0,0 UV-I 90 W/m 2,6 C 7,9 C 4,8 km/h (1 Bft) 97,87 %
06.03.2017 16:12 7,8 C 69 % 1001,0 hPa 0,0 l/m 5,1 km/h (1 Bft) N-NO 25 0 min 0,000 mm 0,0 UV-I 88 W/m 2,5 C 7,8 C 8,0 km/h (2 Bft) 100,00 %
06.03.2017 16:14 7,8 C 70 % 1001,0 hPa 0,0 l/m 5,9 km/h (2 Bft) NO 38 0 min 0,000 mm 0,0 UV-I 85 W/m 2,7 C 7,8 C 9,7 km/h (2 Bft) 100,00 %
06.03.2017 16:16 7,8 C 69 % 1000,9 hPa 0,0 l/m 6,4 km/h (2 Bft) NO 46 0 min 0,000 mm 0,0 UV-I 82 W/m 2,5 C 7,8 C 9,7 km/h (2 Bft) 97,62 %
06.03.2017 16:18 7,8 C 70 % 1000,9 hPa 0,0 l/m 3,7 km/h (1 Bft) N-NO 24 0 min 0,000 mm 0,0 UV-I 82 W/m 2,7 C 7,8 C 8,0 km/h (2 Bft) 98,18 %
06.03.2017 16:20 7,8 C 71 % 1000,8 hPa 0,0 l/m 6,7 km/h (2 Bft) NO 49 0 min 0,000 mm 0,0 UV-I 83 W/m 2,9 C 7,6 C 14,5 km/h (3 Bft) 100,00 %
06.03.2017 16:22 7,8 C 69 % 1000,8 hPa 0,0 l/m 10,4 km/h (2 Bft) N-NO 25 0 min 0,000 mm 0,0 UV-I 83 W/m 2,5 C 4,9 C 14,5 km/h (3 Bft) 100,00 %
06.03.2017 16:24 7,8 C 69 % 1000,8 hPa 0,0 l/m 8,1 km/h (2 Bft) N-NO 24 0 min 0,000 mm 0,0 UV-I 81 W/m 2,5 C 6,5 C 12,9 km/h (3 Bft) 100,00 %
06.03.2017 16:26 7,7 C 70 % 1000,8 hPa 0,0 l/m 7,0 km/h (2 Bft) NO 44 0 min 0,000 mm 0,0 UV-I 75 W/m 2,6 C 7,2 C 9,7 km/h (2 Bft) 97,87 %
06.03.2017 16:28 7,7 C 69 % 1000,8 hPa 0,0 l/m 6,7 km/h (2 Bft) O-NO 67 0 min 0,000 mm 0,0 UV-I 68 W/m 2,4 C 7,5 C 8,0 km/h (2 Bft) 100,00 %
06.03.2017 16:30 7,7 C 69 % 1000,8 hPa 0,0 l/m 8,0 km/h (2 Bft) O-NO 63 0 min 0,000 mm 0,0 UV-I 61 W/m 2,4 C 6,4 C 11,3 km/h (2 Bft) 100,00 %
06.03.2017 16:32 7,7 C 69 % 1000,8 hPa 0,0 l/m 6,8 km/h (2 Bft) O-NO 69 0 min 0,000 mm 0,0 UV-I 58 W/m 2,4 C 7,4 C 9,7 km/h (2 Bft) 98,11 %
06.03.2017 16:34 7,7 C 68 % 1000,8 hPa 0,0 l/m 6,1 km/h (2 Bft) NO 43 0 min 0,000 mm 0,0 UV-I 54 W/m 2,2 C 7,7 C 9,7 km/h (2 Bft) 100,00 %
06.03.2017 16:36 7,7 C 69 % 1000,8 hPa 0,0 l/m 7,7 km/h (2 Bft) O-NO 72 0 min 0,000 mm 0,0 UV-I 52 W/m 2,4 C 6,7 C 12,9 km/h (3 Bft) 100,00 %
06.03.2017 16:38 7,7 C 68 % 1000,8 hPa 0,0 l/m 7,9 km/h (2 Bft) NO 43 0 min 0,000 mm 0,0 UV-I 50 W/m 2,2 C 6,5 C 11,3 km/h (2 Bft) 100,00 %
06.03.2017 16:40 7,7 C 70 % 1000,8 hPa 0,0 l/m 10,3 km/h (2 Bft) NO 50 0 min 0,000 mm 0,0 UV-I 48 W/m 2,6 C 4,9 C 14,5 km/h (3 Bft) 100,00 %
06.03.2017 16:42 7,6 C 69 % 1000,8 hPa 0,0 l/m 7,6 km/h (2 Bft) NO 44 0 min 0,000 mm 0,0 UV-I 47 W/m 2,3 C 6,6 C 9,7 km/h (2 Bft) 100,00 %
06.03.2017 16:44 7,6 C 69 % 1000,8 hPa 0,0 l/m 9,4 km/h (2 Bft) N-NO 32 0 min 0,000 mm 0,0 UV-I 46 W/m 2,3 C 5,3 C 14,5 km/h (3 Bft) 100,00 %
06.03.2017 16:46 7,6 C 70 % 1000,8 hPa 0,0 l/m 8,0 km/h (2 Bft) NO 43 0 min 0,000 mm 0,0 UV-I 43 W/m 2,5 C 6,3 C 11,3 km/h (2 Bft) 100,00 %
06.03.2017 16:48 7,5 C 71 % 1000,7 hPa 0,0 l/m 8,1 km/h (2 Bft) O-NO 57 0 min 0,000 mm 0,0 UV-I 42 W/m 2,6 C 6,2 C 11,3 km/h (2 Bft) 100,00 %
06.03.2017 16:50 7,4 C 72 % 1000,7 hPa 0,0 l/m 7,8 km/h (2 Bft) NO 46 0 min 0,000 mm 0,0 UV-I 40 W/m 2,7 C 6,3 C 11,3 km/h (2 Bft) 100,00 %
06.03.2017 16:52 7,4 C 71 % 1000,7 hPa 0,0 l/m 7,6 km/h (2 Bft) NO 55 0 min 0,000 mm 0,0 UV-I 40 W/m 2,5 C 6,4 C 11,3 km/h (2 Bft) 100,00 %
06.03.2017 16:54 7,4 C 70 % 1000,6 hPa 0,0 l/m 7,2 km/h (2 Bft) O-NO 61 0 min 0,000 mm 0,0 UV-I 45 W/m 2,3 C 6,8 C 11,3 km/h (2 Bft) 100,00 %
06.03.2017 16:56 7,4 C 71 % 1000,6 hPa 0,0 l/m 7,9 km/h (2 Bft) O-NO 66 0 min 0,000 mm 0,0 UV-I 47 W/m 2,5 C 6,2 C 12,9 km/h (3 Bft) 95,83 %
06.03.2017 16:58 7,4 C 70 % 1000,6 hPa 0,0 l/m 8,4 km/h (2 Bft) N-NO 32 0 min 0,000 mm 0,0 UV-I 47 W/m 2,3 C 5,8 C 11,3 km/h (2 Bft) 95,74 %
06.03.2017 17:00 7,4 C 71 % 1000,6 hPa 0,0 l/m 5,3 km/h (1 Bft) NO 39 0 min 0,000 mm 0,0 UV-I 46 W/m 2,5 C 7,4 C 8,0 km/h (2 Bft) 97,87 %
06.03.2017 17:02 7,3 C 72 % 1000,6 hPa 0,0 l/m 5,9 km/h (2 Bft) NO 40 0 min 0,050 mm 0,0 UV-I 45 W/m 2,6 C 7,3 C 8,0 km/h (2 Bft) 97,73 %
06.03.2017 17:04 7,3 C 72 % 1000,5 hPa 0,0 l/m 6,8 km/h (2 Bft) NO 55 0 min 0,000 mm 0,0 UV-I 42 W/m 2,6 C 7,0 C 9,7 km/h (2 Bft) 98,11 %
06.03.2017 17:06 7,3 C 72 % 1000,5 hPa 0,0 l/m 6,0 km/h (2 Bft) O-NO 57 0 min 0,000 mm 0,0 UV-I 41 W/m 2,6 C 7,3 C 8,0 km/h (2 Bft) 97,56 %
06.03.2017 17:08 7,3 C 71 % 1000,5 hPa 0,0 l/m 5,9 km/h (2 Bft) NO 52 0 min 0,000 mm 0,0 UV-I 40 W/m 2,4 C 7,3 C 8,0 km/h (2 Bft) 98,11 %
06.03.2017 17:10 7,3 C 70 % 1000,5 hPa 0,0 l/m 7,6 km/h (2 Bft) NO 54 0 min 0,000 mm 0,0 UV-I 40 W/m 2,2 C 6,3 C 11,3 km/h (2 Bft) 97,87 %
06.03.2017 17:12 7,3 C 71 % 1000,5 hPa 0,0 l/m 7,1 km/h (2 Bft) O-NO 63 0 min 0,000 mm 0,0 UV-I 40 W/m 2,4 C 6,7 C 9,7 km/h (2 Bft) 96,00 %
06.03.2017 17:14 7,3 C 71 % 1000,5 hPa 0,0 l/m 6,5 km/h (2 Bft) O-NO 61 0 min 0,000 mm 0,0 UV-I 39 W/m 2,4 C 7,2 C 9,7 km/h (2 Bft) 92,11 %
06.03.2017 17:16 7,3 C 72 % 1000,5 hPa 0,0 l/m 7,8 km/h (2 Bft) O-NO 61 0 min 0,000 mm 0,0 UV-I 40 W/m 2,6 C 6,2 C 12,9 km/h (3 Bft) 96,23 %
06.03.2017 17:18 7,3 C 72 % 1000,5 hPa 0,0 l/m 9,2 km/h (2 Bft) O-NO 71 0 min 0,000 mm 0,0 UV-I 40 W/m 2,6 C 5,1 C 12,9 km/h (3 Bft) 94,74 %
06.03.2017 17:20 7,3 C 72 % 1000,5 hPa 0,0 l/m 9,3 km/h (2 Bft) O 79 0 min 0,000 mm 0,0 UV-I 39 W/m 2,6 C 5,1 C 12,9 km/h (3 Bft) 94,34 %
06.03.2017 17:22 7,2 C 73 % 1000,5 hPa 0,0 l/m 6,9 km/h (2 Bft) O-NO 66 0 min 0,000 mm 0,0 UV-I 34 W/m 2,7 C 6,8 C 9,7 km/h (2 Bft) 93,18 %
06.03.2017 17:24 7,2 C 73 % 1000,6 hPa 0,0 l/m 5,5 km/h (1 Bft) NO 54 0 min 0,000 mm 0,0 UV-I 32 W/m 2,7 C 7,2 C 8,0 km/h (2 Bft) 96,23 %
06.03.2017 17:26 7,2 C 73 % 1000,5 hPa 0,0 l/m 5,4 km/h (1 Bft) O-NO 60 0 min 0,000 mm 0,0 UV-I 31 W/m 2,7 C 7,2 C 8,0 km/h (2 Bft) 96,00 %
06.03.2017 17:28 7,2 C 72 % 1000,5 hPa 0,0 l/m 5,1 km/h (1 Bft) NO 56 0 min 0,000 mm 0,0 UV-I 29 W/m 2,5 C 7,2 C 8,0 km/h (2 Bft) 94,74 %
06.03.2017 17:30 7,1 C 73 % 1000,5 hPa 0,0 l/m 4,8 km/h (1 Bft) O-NO 63 0 min 0,000 mm 0,0 UV-I 28 W/m 2,6 C 7,1 C 6,4 km/h (2 Bft) 96,00 %
06.03.2017 17:32 7,1 C 73 % 1000,5 hPa 0,0 l/m 6,3 km/h (2 Bft) NO 42 0 min 0,000 mm 0,0 UV-I 27 W/m 2,6 C 7,1 C 9,7 km/h (2 Bft) 97,56 %
06.03.2017 17:34 7,1 C 73 % 1000,5 hPa 0,0 l/m 5,9 km/h (2 Bft) NO 51 0 min 0,000 mm 0,0 UV-I 26 W/m 2,6 C 7,1 C 8,0 km/h (2 Bft) 96,23 %
06.03.2017 17:36 7,1 C 73 % 1000,5 hPa 0,0 l/m 5,7 km/h (1 Bft) NO 40 2 min 0,000 mm 0,0 UV-I 24 W/m 2,6 C 7,1 C 8,0 km/h (2 Bft) 92,86 %
06.03.2017 17:38 7,0 C 73 % 1000,4 hPa 0,0 l/m 4,5 km/h (1 Bft) NO 45 2 min 0,000 mm 0,0 UV-I 22 W/m 2,5 C 7,0 C 6,4 km/h (2 Bft) 97,87 %
06.03.2017 17:40 6,9 C 73 % 1000,4 hPa 0,0 l/m 6,6 km/h (2 Bft) NO 40 2 min 0,000 mm 0,0 UV-I 19 W/m 2,4 C 6,8 C 9,7 km/h (2 Bft) 97,87 %
06.03.2017 17:42 6,8 C 74 % 1000,4 hPa 0,0 l/m 6,5 km/h (2 Bft) NO 42 2 min 0,000 mm 0,0 UV-I 18 W/m 2,5 C 6,7 C 12,9 km/h (3 Bft) 94,00 %
06.03.2017 17:44 6,7 C 73 % 1000,4 hPa 0,0 l/m 7,2 km/h (2 Bft) NO 36 2 min 0,000 mm 0,0 UV-I 15 W/m 2,2 C 6,0 C 9,7 km/h (2 Bft) 95,74 %
06.03.2017 17:46 6,7 C 73 % 1000,4 hPa 0,0 l/m 6,7 km/h (2 Bft) N-NO 22 0 min 0,000 mm 0,0 UV-I 12 W/m 2,2 C 6,5 C 9,7 km/h (2 Bft) 93,62 %
06.03.2017 17:48 6,6 C 74 % 1000,4 hPa 0,0 l/m 4,7 km/h (1 Bft) NO 34 0 min 0,000 mm 0,0 UV-I 11 W/m 2,3 C 6,6 C 8,0 km/h (2 Bft) 95,12 %
06.03.2017 17:50 6,5 C 76 % 1000,4 hPa 0,0 l/m 6,1 km/h (2 Bft) N-NO 26 0 min 0,000 mm 0,0 UV-I 10 W/m 2,6 C 6,5 C 9,7 km/h (2 Bft) 96,43 %
06.03.2017 17:52 6,4 C 76 % 1000,4 hPa 0,0 l/m 6,6 km/h (2 Bft) N-NO 32 0 min 0,000 mm 0,0 UV-I 8 W/m 2,5 C 6,3 C 8,0 km/h (2 Bft) 90,24 %
06.03.2017 17:54 6,3 C 76 % 1000,4 hPa 0,0 l/m 7,9 km/h (2 Bft) N-NO 26 0 min 0,000 mm 0,0 UV-I 7 W/m 2,4 C 5,0 C 12,9 km/h (3 Bft) 91,49 %
06.03.2017 17:56 6,3 C 75 % 1000,5 hPa 0,0 l/m 7,3 km/h (2 Bft) N-NO 24 0 min 0,000 mm 0,0 UV-I 6 W/m 2,2 C 5,5 C 9,7 km/h (2 Bft) 94,29 %
06.03.2017 17:58 6,3 C 75 % 1000,4 hPa 0,0 l/m 6,0 km/h (2 Bft) N-NO 19 0 min 0,000 mm 0,0 UV-I 5 W/m 2,2 C 6,3 C 8,0 km/h (2 Bft) 98,00 %
06.03.2017 18:00 6,2 C 76 % 1000,4 hPa 0,0 l/m 3,9 km/h (1 Bft) N-NO 19 0 min 0,000 mm 0,0 UV-I 5 W/m 2,3 C 6,2 C 6,4 km/h (2 Bft) 92,45 %
06.03.2017 18:02 6,1 C 77 % 1000,3 hPa 0,0 l/m 4,6 km/h (1 Bft) N-NO 16 0 min 0,026 mm 0,0 UV-I 5 W/m 2,4 C 6,1 C 6,4 km/h (2 Bft) 94,00 %
06.03.2017 18:04 6,0 C 77 % 1000,4 hPa 0,0 l/m 5,5 km/h (1 Bft) NO 40 0 min 0,000 mm 0,0 UV-I 5 W/m 2,3 C 6,0 C 6,4 km/h (2 Bft) 94,00 %
06.03.2017 18:06 5,9 C 77 % 1000,3 hPa 0,0 l/m 4,7 km/h (1 Bft) O-NO 63 0 min 0,000 mm 0,0 UV-I 4 W/m 2,2 C 5,9 C 6,4 km/h (2 Bft) 97,56 %
06.03.2017 18:08 6,0 C 76 % 1000,3 hPa 0,0 l/m 7,9 km/h (2 Bft) O-NO 76 0 min 0,000 mm 0,0 UV-I 0 W/m 2,1 C 4,7 C 11,3 km/h (2 Bft) 94,34 %
06.03.2017 18:10 5,9 C 77 % 1000,2 hPa 0,0 l/m 9,1 km/h (2 Bft) O-NO 63 0 min 0,000 mm 0,0 UV-I 0 W/m 2,2 C 3,7 C 12,9 km/h (3 Bft) 95,12 %
06.03.2017 18:12 5,9 C 76 % 1000,2 hPa 0,0 l/m 9,9 km/h (2 Bft) O-NO 69 0 min 0,000 mm 0,0 UV-I 0 W/m 2,0 C 3,1 C 14,5 km/h (3 Bft) 92,45 %
06.03.2017 18:14 5,9 C 76 % 1000,1 hPa 0,0 l/m 8,7 km/h (2 Bft) O-NO 67 0 min 0,000 mm 0,0 UV-I 0 W/m 2,0 C 4,0 C 12,9 km/h (3 Bft) 94,00 %
06.03.2017 18:16 5,9 C 75 % 1000,1 hPa 0,0 l/m 9,9 km/h (2 Bft) NO 48 0 min 0,000 mm 0,0 UV-I 0 W/m 1,8 C 3,1 C 14,5 km/h (3 Bft) 90,48 %
06.03.2017 18:18 5,9 C 75 % 1000,1 hPa 0,0 l/m 8,4 km/h (2 Bft) O-NO 76 0 min 0,000 mm 0,0 UV-I 0 W/m 1,8 C 4,2 C 12,9 km/h (3 Bft) 98,08 %
06.03.2017 18:20 6,0 C 75 % 1000,1 hPa 0,0 l/m 6,7 km/h (2 Bft) O-NO 71 0 min 0,000 mm 0,0 UV-I 0 W/m 1,9 C 5,8 C 12,9 km/h (3 Bft) 97,22 %
06.03.2017 18:22 5,9 C 75 % 1000,2 hPa 0,0 l/m 6,0 km/h (2 Bft) O-NO 57 0 min 0,000 mm 0,0 UV-I 0 W/m 1,8 C 5,9 C 9,7 km/h (2 Bft) 92,00 %
06.03.2017 18:24 5,9 C 75 % 1000,2 hPa 0,0 l/m 4,9 km/h (1 Bft) NO 51 0 min 0,000 mm 0,0 UV-I 0 W/m 1,8 C 5,9 C 8,0 km/h (2 Bft) 94,00 %
06.03.2017 18:26 5,9 C 74 % 1000,2 hPa 0,0 l/m 5,5 km/h (1 Bft) O-NO 67 0 min 0,000 mm 0,0 UV-I 0 W/m 1,6 C 5,9 C 8,0 km/h (2 Bft) 94,00 %
06.03.2017 18:28 5,9 C 74 % 1000,2 hPa 0,0 l/m 6,1 km/h (2 Bft) O-NO 65 0 min 0,000 mm 0,0 UV-I 0 W/m 1,6 C 5,9 C 9,7 km/h (2 Bft) 97,14 %
06.03.2017 18:30 5,8 C 75 % 1000,2 hPa 0,0 l/m 5,5 km/h (1 Bft) O-NO 57 0 min 0,000 mm 0,0 UV-I 0 W/m 1,7 C 5,8 C 8,0 km/h (2 Bft) 89,83 %
06.03.2017 18:32 5,8 C 75 % 1000,2 hPa 0,0 l/m 5,2 km/h (1 Bft) NO 56 0 min 0,000 mm 0,0 UV-I 0 W/m 1,7 C 5,8 C 6,4 km/h (2 Bft) 91,49 %
06.03.2017 18:34 5,8 C 75 % 1000,2 hPa 0,0 l/m 4,0 km/h (1 Bft) NO 45 0 min 0,000 mm 0,0 UV-I 0 W/m 1,7 C 5,8 C 6,4 km/h (2 Bft) 100,00 %
06.03.2017 18:36 5,7 C 75 % 1000,2 hPa 0,0 l/m 4,2 km/h (1 Bft) NO 37 0 min 0,000 mm 0,0 UV-I 0 W/m 1,6 C 5,7 C 6,4 km/h (2 Bft) 94,34 %
06.03.2017 18:38 5,6 C 75 % 1000,2 hPa 0,0 l/m 5,0 km/h (1 Bft) NO 36 0 min 0,000 mm 0,0 UV-I 0 W/m 1,5 C 5,6 C 6,4 km/h (2 Bft) 95,74 %
06.03.2017 18:40 5,5 C 76 % 1000,2 hPa 0,0 l/m 4,4 km/h (1 Bft) NO 36 0 min 0,000 mm 0,0 UV-I 0 W/m 1,6 C 5,5 C 4,8 km/h (1 Bft) 100,00 %
06.03.2017 18:42 5,3 C 76 % 1000,2 hPa 0,0 l/m 3,4 km/h (1 Bft) NO 36 0 min 0,000 mm 0,0 UV-I 0 W/m 1,4 C 5,3 C 4,8 km/h (1 Bft) 97,87 %
06.03.2017 18:44 5,2 C 77 % 1000,2 hPa 0,0 l/m 4,5 km/h (1 Bft) NO 36 0 min 0,000 mm 0,0 UV-I 0 W/m 1,5 C 5,2 C 6,4 km/h (2 Bft) 96,23 %
06.03.2017 18:46 5,2 C 77 % 1000,2 hPa 0,0 l/m 3,4 km/h (1 Bft) NO 36 0 min 0,000 mm 0,0 UV-I 0 W/m 1,5 C 5,2 C 4,8 km/h (1 Bft) 97,37 %
06.03.2017 18:48 5,1 C 77 % 1000,2 hPa 0,0 l/m 3,3 km/h (1 Bft) NO 36 0 min 0,000 mm 0,0 UV-I 0 W/m 1,4 C 5,1 C 4,8 km/h (1 Bft) 98,11 %
06.03.2017 18:50 5,1 C 77 % 1000,2 hPa 0,0 l/m 2,0 km/h (1 Bft) NO 36 0 min 0,000 mm 0,0 UV-I 0 W/m 1,4 C 5,1 C 4,8 km/h (1 Bft) 100,00 %
06.03.2017 18:52 4,9 C 78 % 1000,2 hPa 0,0 l/m 0,6 km/h (0 Bft) NO 36 0 min 0,000 mm 0,0 UV-I 0 W/m 1,4 C 4,9 C 1,6 km/h (1 Bft) 98,00 %
06.03.2017 18:54 4,8 C 78 % 1000,2 hPa 0,0 l/m 1,6 km/h (1 Bft) NO 34 0 min 0,000 mm 0,0 UV-I 0 W/m 1,3 C 4,8 C 3,2 km/h (1 Bft) 100,00 %
06.03.2017 18:56 4,8 C 78 % 1000,3 hPa 0,0 l/m 1,0 km/h (0 Bft) NO 34 0 min 0,000 mm 0,0 UV-I 0 W/m 1,3 C 4,8 C 3,2 km/h (1 Bft) 97,87 %
06.03.2017 18:58 4,8 C 78 % 1000,2 hPa 0,0 l/m 2,5 km/h (1 Bft) NO 34 0 min 0,000 mm 0,0 UV-I 0 W/m 1,3 C 4,8 C 4,8 km/h (1 Bft) 97,73 %
06.03.2017 19:00 4,8 C 78 % 1000,3 hPa 0,0 l/m 3,4 km/h (1 Bft) NO 34 0 min 0,000 mm 0,0 UV-I 0 W/m 1,3 C 4,8 C 4,8 km/h (1 Bft) 95,45 %
06.03.2017 19:02 4,8 C 78 % 1000,2 hPa 0,0 l/m 3,3 km/h (1 Bft) NO 34 0 min 0,025 mm 0,0 UV-I 0 W/m 1,3 C 4,8 C 4,8 km/h (1 Bft) 98,18 %
06.03.2017 19:04 4,8 C 78 % 1000,2 hPa 0,0 l/m 5,2 km/h (1 Bft) NO 36 0 min 0,000 mm 0,0 UV-I 0 W/m 1,3 C 4,8 C 6,4 km/h (2 Bft) 96,23 %
06.03.2017 19:06 4,9 C 78 % 1000,2 hPa 0,0 l/m 4,7 km/h (1 Bft) NO 44 0 min 0,000 mm 0,0 UV-I 0 W/m 1,4 C 4,9 C 6,4 km/h (2 Bft) 95,12 %
06.03.2017 19:09 4,9 C 78 % 1000,2 hPa 0,0 l/m 5,5 km/h (1 Bft) NO 40 0 min 0,000 mm 0,0 UV-I 0 W/m 1,4 C 4,9 C 8,0 km/h (2 Bft) 95,89 %
06.03.2017 19:10 4,8 C 78 % 1000,2 hPa 0,0 l/m 5,8 km/h (2 Bft) NO 37 0 min 0,000 mm 0,0 UV-I 0 W/m 1,3 C 4,8 C 6,4 km/h (2 Bft) 100,00 %
06.03.2017 19:12 4,8 C 78 % 1000,2 hPa 0,0 l/m 5,8 km/h (2 Bft) NO 37 0 min 0,000 mm 0,0 UV-I 0 W/m 1,3 C 4,8 C 8,0 km/h (2 Bft) 92,86 %
06.03.2017 19:14 4,7 C 79 % 1000,1 hPa 0,0 l/m 5,2 km/h (1 Bft) N-NO 28 0 min 0,000 mm 0,0 UV-I 0 W/m 1,4 C 4,7 C 8,0 km/h (2 Bft) 97,37 %
06.03.2017 19:16 4,7 C 79 % 1000,2 hPa 0,0 l/m 4,5 km/h (1 Bft) N-NO 32 0 min 0,000 mm 0,0 UV-I 0 W/m 1,4 C 4,7 C 8,0 km/h (2 Bft) 94,34 %
06.03.2017 19:18 4,7 C 80 % 1000,1 hPa 0,0 l/m 1,2 km/h (1 Bft) N-NO 31 0 min 0,000 mm 0,0 UV-I 0 W/m 1,6 C 4,7 C 4,8 km/h (1 Bft) 95,45 %
06.03.2017 19:20 4,6 C 80 % 1000,2 hPa 0,0 l/m 0,1 km/h (0 Bft) N-NO 31 0 min 0,000 mm 0,0 UV-I 0 W/m 1,5 C 4,6 C 1,6 km/h (1 Bft) 98,00 %
06.03.2017 19:22 4,5 C 80 % 1000,2 hPa 0,0 l/m 1,2 km/h (1 Bft) N-NO 29 0 min 0,000 mm 0,0 UV-I 0 W/m 1,4 C 4,5 C 4,8 km/h (1 Bft) 95,74 %
06.03.2017 19:24 4,5 C 80 % 1000,1 hPa 0,0 l/m 5,7 km/h (1 Bft) N-NO 27 0 min 0,000 mm 0,0 UV-I 0 W/m 1,4 C 4,5 C 8,0 km/h (2 Bft) 98,00 %
06.03.2017 19:26 4,6 C 79 % 1000,1 hPa 0,0 l/m 5,5 km/h (1 Bft) NO 35 0 min 0,000 mm 0,0 UV-I 0 W/m 1,3 C 4,6 C 8,0 km/h (2 Bft) 86,84 %
06.03.2017 19:28 4,7 C 79 % 1000,1 hPa 0,0 l/m 6,1 km/h (2 Bft) NO 36 0 min 0,000 mm 0,0 UV-I 0 W/m 1,4 C 4,7 C 8,0 km/h (2 Bft) 94,87 %
06.03.2017 19:30 4,7 C 79 % 1000,1 hPa 0,0 l/m 3,6 km/h (1 Bft) NO 36 0 min 0,000 mm 0,0 UV-I 0 W/m 1,4 C 4,7 C 6,4 km/h (2 Bft) 93,75 %
06.03.2017 19:32 4,8 C 79 % 1000,0 hPa 0,0 l/m 4,3 km/h (1 Bft) NO 36 0 min 0,000 mm 0,0 UV-I 0 W/m 1,5 C 4,8 C 6,4 km/h (2 Bft) 92,31 %
06.03.2017 19:34 4,8 C 79 % 1000,0 hPa 0,0 l/m 3,7 km/h (1 Bft) NO 36 0 min 0,000 mm 0,0 UV-I 0 W/m 1,5 C 4,8 C 4,8 km/h (1 Bft) 96,36 %
06.03.2017 19:36 4,7 C 79 % 1000,0 hPa 0,0 l/m 3,6 km/h (1 Bft) NO 36 0 min 0,000 mm 0,0 UV-I 0 W/m 1,4 C 4,7 C 4,8 km/h (1 Bft) 97,62 %
06.03.2017 19:38 4,7 C 79 % 1000,0 hPa 0,0 l/m 2,4 km/h (1 Bft) NO 36 0 min 0,000 mm 0,0 UV-I 0 W/m 1,4 C 4,7 C 4,8 km/h (1 Bft) 96,00 %
06.03.2017 19:40 4,7 C 79 % 1000,0 hPa 0,0 l/m 1,4 km/h (1 Bft) NO 36 0 min 0,000 mm 0,0 UV-I 0 W/m 1,4 C 4,7 C 1,6 km/h (1 Bft) 95,45 %
06.03.2017 19:42 4,7 C 79 % 1000,0 hPa 0,0 l/m 1,5 km/h (1 Bft) NO 36 0 min 0,000 mm 0,0 UV-I 0 W/m 1,4 C 4,7 C 3,2 km/h (1 Bft) 97,87 %
06.03.2017 19:44 4,6 C 79 % 1000,0 hPa 0,0 l/m 1,4 km/h (1 Bft) NO 36 0 min 0,000 mm 0,0 UV-I 0 W/m 1,3 C 4,6 C 3,2 km/h (1 Bft) 95,45 %
06.03.2017 19:46 4,5 C 80 % 1000,0 hPa 0,0 l/m 2,8 km/h (1 Bft) NO 36 0 min 0,000 mm 0,0 UV-I 0 W/m 1,4 C 4,5 C 4,8 km/h (1 Bft) 100,00 %
06.03.2017 19:48 4,5 C 80 % 999,9 hPa 0,0 l/m 3,3 km/h (1 Bft) NO 36 0 min 0,000 mm 0,0 UV-I 0 W/m 1,4 C 4,5 C 4,8 km/h (1 Bft) 98,11 %
06.03.2017 19:50 4,5 C 80 % 999,9 hPa 0,0 l/m 0,7 km/h (0 Bft) NO 36 0 min 0,000 mm 0,0 UV-I 0 W/m 1,4 C 4,5 C 3,2 km/h (1 Bft) 96,23 %
06.03.2017 19:52 4,5 C 80 % 999,9 hPa 0,0 l/m 0,8 km/h (0 Bft) NO 36 0 min 0,000 mm 0,0 UV-I 0 W/m 1,4 C 4,5 C 3,2 km/h (1 Bft) 97,73 %
06.03.2017 19:54 4,6 C 80 % 999,8 hPa 0,0 l/m 0,9 km/h (0 Bft) NO 34 0 min 0,000 mm 0,0 UV-I 0 W/m 1,5 C 4,6 C 3,2 km/h (1 Bft) 98,11 %
06.03.2017 19:56 4,6 C 79 % 999,9 hPa 0,0 l/m 1,2 km/h (1 Bft) NO 34 0 min 0,000 mm 0,0 UV-I 0 W/m 1,3 C 4,6 C 3,2 km/h (1 Bft) 97,14 %
06.03.2017 19:58 4,6 C 79 % 999,9 hPa 0,0 l/m 1,4 km/h (1 Bft) NO 34 0 min 0,000 mm 0,0 UV-I 0 W/m 1,3 C 4,6 C 3,2 km/h (1 Bft) 98,11 %
06.03.2017 20:00 4,6 C 79 % 999,8 hPa 0,0 l/m 1,4 km/h (1 Bft) N-NO 33 0 min 0,000 mm 0,0 UV-I 0 W/m 1,3 C 4,6 C 3,2 km/h (1 Bft) 97,37 %
06.03.2017 20:02 4,6 C 79 % 999,8 hPa 0,0 l/m 2,0 km/h (1 Bft) N-NO 22 0 min 0,000 mm 0,0 UV-I 0 W/m 1,3 C 4,6 C 4,8 km/h (1 Bft) 98,31 %
06.03.2017 20:04 4,6 C 79 % 999,8 hPa 0,0 l/m 0,6 km/h (0 Bft) N-NO 19 0 min 0,000 mm 0,0 UV-I 0 W/m 1,3 C 4,6 C 3,2 km/h (1 Bft) 97,87 %
06.03.2017 20:06 4,6 C 80 % 999,8 hPa 0,0 l/m 1,8 km/h (1 Bft) N 11 0 min 0,000 mm 0,0 UV-I 0 W/m 1,5 C 4,6 C 4,8 km/h (1 Bft) 97,37 %
06.03.2017 20:08 4,5 C 80 % 999,9 hPa 0,0 l/m 2,2 km/h (1 Bft) N 11 0 min 0,000 mm 0,0 UV-I 0 W/m 1,4 C 4,5 C 6,4 km/h (2 Bft) 98,00 %
06.03.2017 20:10 4,6 C 79 % 999,8 hPa 0,0 l/m 1,4 km/h (1 Bft) N 9 0 min 0,000 mm 0,0 UV-I 0 W/m 1,3 C 4,6 C 4,8 km/h (1 Bft) 96,23 %
06.03.2017 20:12 4,6 C 79 % 999,8 hPa 0,0 l/m 2,6 km/h (1 Bft) N 355 0 min 0,000 mm 0,0 UV-I 0 W/m 1,3 C 4,6 C 8,0 km/h (2 Bft) 88,89 %
06.03.2017 20:14 4,6 C 79 % 999,9 hPa 0,0 l/m 1,1 km/h (1 Bft) N 5 0 min 0,000 mm 0,0 UV-I 0 W/m 1,3 C 4,6 C 3,2 km/h (1 Bft) 96,36 %
06.03.2017 20:16 4,5 C 79 % 999,9 hPa 0,0 l/m 0,3 km/h (0 Bft) N 5 0 min 0,000 mm 0,0 UV-I 0 W/m 1,2 C 4,5 C 1,6 km/h (1 Bft) 97,62 %
06.03.2017 20:18 4,4 C 79 % 999,9 hPa 0,0 l/m 1,1 km/h (1 Bft) N 5 0 min 0,000 mm 0,0 UV-I 0 W/m 1,1 C 4,4 C 3,2 km/h (1 Bft) 98,00 %
06.03.2017 20:20 4,4 C 79 % 999,9 hPa 0,0 l/m 0,1 km/h (0 Bft) N 5 0 min 0,000 mm 0,0 UV-I 0 W/m 1,1 C 4,4 C 1,6 km/h (1 Bft) 98,00 %
06.03.2017 20:22 4,4 C 79 % 999,9 hPa 0,0 l/m 0,3 km/h (0 Bft) N 5 0 min 0,000 mm 0,0 UV-I 0 W/m 1,1 C 4,4 C 1,6 km/h (1 Bft) 98,00 %
06.03.2017 20:24 4,4 C 79 % 999,9 hPa 0,0 l/m 0,5 km/h (0 Bft) N 5 0 min 0,000 mm 0,0 UV-I 0 W/m 1,1 C 4,4 C 3,2 km/h (1 Bft) 97,14 %
06.03.2017 20:26 4,3 C 79 % 999,9 hPa 0,0 l/m 0,1 km/h (0 Bft) N 5 0 min 0,000 mm 0,0 UV-I 0 W/m 1,0 C 4,3 C 1,6 km/h (1 Bft) 98,00 %
06.03.2017 20:28 4,3 C 79 % 999,9 hPa 0,0 l/m 0,3 km/h (0 Bft) N 5 0 min 0,000 mm 0,0 UV-I 0 W/m 1,0 C 4,3 C 1,6 km/h (1 Bft) 98,00 %
06.03.2017 20:30 4,3 C 79 % 999,9 hPa 0,0 l/m 0,3 km/h (0 Bft) N 5 0 min 0,000 mm 0,0 UV-I 0 W/m 1,0 C 4,3 C 1,6 km/h (1 Bft) 95,74 %
06.03.2017 20:32 4,3 C 79 % 999,9 hPa 0,0 l/m 0,2 km/h (0 Bft) N 5 0 min 0,000 mm 0,0 UV-I 0 W/m 1,0 C 4,3 C 1,6 km/h (1 Bft) 100,00 %
06.03.2017 20:34 4,3 C 79 % 1000,1 hPa 0,0 l/m 0,4 km/h (0 Bft) N 5 0 min 0,000 mm 0,0 UV-I 0 W/m 1,0 C 4,3 C 1,6 km/h (1 Bft) 96,23 %
06.03.2017 20:36 4,3 C 79 % 1000,0 hPa 0,0 l/m 0,6 km/h (0 Bft) N 5 0 min 0,000 mm 0,0 UV-I 0 W/m 1,0 C 4,3 C 1,6 km/h (1 Bft) 96,00 %
06.03.2017 20:38 4,3 C 79 % 1000,1 hPa 0,0 l/m 0,4 km/h (0 Bft) N 5 0 min 0,000 mm 0,0 UV-I 0 W/m 1,0 C 4,3 C 1,6 km/h (1 Bft) 98,11 %
06.03.2017 20:40 4,3 C 79 % 1000,1 hPa 0,0 l/m 1,0 km/h (0 Bft) N 5 0 min 0,000 mm 0,0 UV-I 0 W/m 1,0 C 4,3 C 3,2 km/h (1 Bft) 100,00 %
06.03.2017 20:42 4,2 C 80 % 1000,1 hPa 0,0 l/m 1,9 km/h (1 Bft) N 5 0 min 0,000 mm 0,0 UV-I 0 W/m 1,1 C 4,2 C 3,2 km/h (1 Bft) 98,21 %
06.03.2017 20:44 4,2 C 80 % 1000,2 hPa 0,0 l/m 0,9 km/h (0 Bft) N 5 0 min 0,000 mm 0,0 UV-I 0 W/m 1,1 C 4,2 C 1,6 km/h (1 Bft) 95,12 %
06.03.2017 20:46 4,2 C 80 % 1000,1 hPa 0,0 l/m 0,0 km/h (0 Bft) N 5 0 min 0,000 mm 0,0 UV-I 0 W/m 1,1 C 4,2 C 1,6 km/h (1 Bft) 100,00 %
06.03.2017 20:48 4,2 C 80 % 1000,1 hPa 0,0 l/m 0,5 km/h (0 Bft) N 360 0 min 0,000 mm 0,0 UV-I 0 W/m 1,1 C 4,2 C 1,6 km/h (1 Bft) 98,00 %
06.03.2017 20:50 4,1 C 80 % 1000,1 hPa 0,0 l/m 0,4 km/h (0 Bft) N 360 0 min 0,000 mm 0,0 UV-I 0 W/m 1,0 C 4,1 C 1,6 km/h (1 Bft) 100,00 %
06.03.2017 20:52 4,0 C 80 % 1000,1 hPa 0,0 l/m 0,2 km/h (0 Bft) N-NW 348 0 min 0,000 mm 0,0 UV-I 0 W/m 0,9 C 4,0 C 1,6 km/h (1 Bft) 97,44 %
06.03.2017 20:54 3,9 C 81 % 1000,1 hPa 0,0 l/m 0,1 km/h (0 Bft) N-NW 348 0 min 0,000 mm 0,0 UV-I 0 W/m 0,9 C 3,9 C 1,6 km/h (1 Bft) 100,00 %
06.03.2017 20:56 3,7 C 81 % 1000,2 hPa 0,0 l/m 0,2 km/h (0 Bft) N 349 0 min 0,000 mm 0,0 UV-I 0 W/m 0,7 C 3,7 C 1,6 km/h (1 Bft) 98,08 %
06.03.2017 20:58 3,7 C 82 % 1000,3 hPa 0,0 l/m 0,2 km/h (0 Bft) N 350 0 min 0,000 mm 0,0 UV-I 0 W/m 0,9 C 3,7 C 1,6 km/h (1 Bft) 97,44 %
06.03.2017 21:00 3,7 C 82 % 1000,2 hPa 0,0 l/m 0,1 km/h (0 Bft) N 355 0 min 0,000 mm 0,0 UV-I 0 W/m 0,9 C 3,7 C 1,6 km/h (1 Bft) 100,00 %
06.03.2017 21:02 3,6 C 82 % 1000,2 hPa 0,0 l/m 0,0 km/h (0 Bft) N 355 0 min 0,000 mm 0,0 UV-I 0 W/m 0,8 C 3,6 C 1,6 km/h (1 Bft) 97,14 %
06.03.2017 21:04 3,6 C 82 % 1000,3 hPa 0,0 l/m 0,3 km/h (0 Bft) N 355 0 min 0,000 mm 0,0 UV-I 0 W/m 0,8 C 3,6 C 1,6 km/h (1 Bft) 96,23 %
06.03.2017 21:06 3,7 C 82 % 1000,3 hPa 0,0 l/m 0,1 km/h (0 Bft) N 355 0 min 0,000 mm 0,0 UV-I 0 W/m 0,9 C 3,7 C 1,6 km/h (1 Bft) 98,11 %
06.03.2017 21:08 3,7 C 82 % 1000,3 hPa 0,0 l/m 0,2 km/h (0 Bft) N 355 0 min 0,000 mm 0,0 UV-I 0 W/m 0,9 C 3,7 C 1,6 km/h (1 Bft) 97,87 %
06.03.2017 21:10 3,8 C 82 % 1000,3 hPa 0,0 l/m 0,3 km/h (0 Bft) N 355 0 min 0,000 mm 0,0 UV-I 0 W/m 1,0 C 3,8 C 1,6 km/h (1 Bft) 91,43 %
06.03.2017 21:12 3,8 C 82 % 1000,3 hPa 0,0 l/m 0,2 km/h (0 Bft) N 355 0 min 0,000 mm 0,0 UV-I 0 W/m 1,0 C 3,8 C 1,6 km/h (1 Bft) 96,23 %
06.03.2017 21:14 3,8 C 82 % 1000,3 hPa 0,0 l/m 0,2 km/h (0 Bft) N 355 0 min 0,000 mm 0,0 UV-I 0 W/m 1,0 C 3,8 C 1,6 km/h (1 Bft) 94,00 %
06.03.2017 21:16 3,8 C 81 % 1000,3 hPa 0,0 l/m 0,2 km/h (0 Bft) N 355 0 min 0,000 mm 0,0 UV-I 0 W/m 0,8 C 3,8 C 1,6 km/h (1 Bft) 100,00 %
06.03.2017 21:18 3,8 C 81 % 1000,3 hPa 0,0 l/m 0,2 km/h (0 Bft) N 355 0 min 0,000 mm 0,0 UV-I 0 W/m 0,8 C 3,8 C 1,6 km/h (1 Bft) 94,00 %
06.03.2017 21:20 3,8 C 81 % 1000,3 hPa 0,0 l/m 0,1 km/h (0 Bft) N 355 0 min 0,000 mm 0,0 UV-I 0 W/m 0,8 C 3,8 C 1,6 km/h (1 Bft) 92,68 %
06.03.2017 21:22 3,8 C 81 % 1000,3 hPa 0,0 l/m 0,2 km/h (0 Bft) N 355 0 min 0,000 mm 0,0 UV-I 0 W/m 0,8 C 3,8 C 1,6 km/h (1 Bft) 91,49 %
06.03.2017 21:24 3,8 C 81 % 1000,4 hPa 0,0 l/m 0,1 km/h (0 Bft) N 355 0 min 0,000 mm 0,0 UV-I 0 W/m 0,8 C 3,8 C 1,6 km/h (1 Bft) 94,00 %
06.03.2017 21:26 3,8 C 81 % 1000,4 hPa 0,0 l/m 0,3 km/h (0 Bft) N 355 0 min 0,000 mm 0,0 UV-I 0 W/m 0,8 C 3,8 C 1,6 km/h (1 Bft) 94,00 %
06.03.2017 21:28 3,8 C 81 % 1000,4 hPa 0,0 l/m 0,8 km/h (0 Bft) N 355 0 min 0,000 mm 0,0 UV-I 0 W/m 0,8 C 3,8 C 3,2 km/h (1 Bft) 95,74 %
06.03.2017 21:30 3,8 C 81 % 1000,4 hPa 0,0 l/m 0,9 km/h (0 Bft) N 355 0 min 0,000 mm 0,0 UV-I 0 W/m 0,8 C 3,8 C 1,6 km/h (1 Bft) 92,31 %
06.03.2017 21:32 3,8 C 81 % 1000,4 hPa 0,0 l/m 0,9 km/h (0 Bft) N 355 0 min 0,000 mm 0,0 UV-I 0 W/m 0,8 C 3,8 C 3,2 km/h (1 Bft) 93,10 %
06.03.2017 21:34 3,8 C 81 % 1000,4 hPa 0,0 l/m 1,5 km/h (1 Bft) N 355 0 min 0,000 mm 0,0 UV-I 0 W/m 0,8 C 3,8 C 3,2 km/h (1 Bft) 92,31 %
06.03.2017 21:36 3,8 C 81 % 1000,4 hPa 0,0 l/m 0,5 km/h (0 Bft) N 355 0 min 0,000 mm 0,0 UV-I 0 W/m 0,8 C 3,8 C 1,6 km/h (1 Bft) 92,73 %
06.03.2017 21:39 3,7 C 81 % 1000,4 hPa 0,0 l/m 1,0 km/h (0 Bft) N 355 0 min 0,000 mm 0,0 UV-I 0 W/m 0,7 C 3,7 C 1,6 km/h (1 Bft) 95,59 %
06.03.2017 21:40 3,7 C 81 % 1000,4 hPa 0,0 l/m 1,1 km/h (1 Bft) N 355 0 min 0,000 mm 0,0 UV-I 0 W/m 0,7 C 3,7 C 1,6 km/h (1 Bft) 92,59 %
06.03.2017 21:42 3,7 C 82 % 1000,4 hPa 0,0 l/m 0,2 km/h (0 Bft) N 355 0 min 0,000 mm 0,0 UV-I 0 W/m 0,9 C 3,7 C 1,6 km/h (1 Bft) 94,74 %
06.03.2017 21:44 3,7 C 82 % 1000,4 hPa 0,0 l/m 0,5 km/h (0 Bft) N 355 0 min 0,000 mm 0,0 UV-I 0 W/m 0,9 C 3,7 C 1,6 km/h (1 Bft) 94,00 %
06.03.2017 21:46 3,6 C 82 % 1000,4 hPa 0,0 l/m 0,1 km/h (0 Bft) N 355 0 min 0,000 mm 0,0 UV-I 0 W/m 0,8 C 3,6 C 1,6 km/h (1 Bft) 96,00 %
06.03.2017 21:48 3,4 C 83 % 1000,4 hPa 0,0 l/m 3,5 km/h (1 Bft) NO 48 0 min 0,000 mm 0,0 UV-I 0 W/m 0,8 C 3,4 C 4,8 km/h (1 Bft) 92,68 %
06.03.2017 21:50 3,5 C 83 % 1000,4 hPa 0,0 l/m 2,5 km/h (1 Bft) NO 49 0 min 0,000 mm 0,0 UV-I 0 W/m 0,9 C 3,5 C 3,2 km/h (1 Bft) 94,00 %
06.03.2017 21:52 3,6 C 83 % 1000,5 hPa 0,0 l/m 0,3 km/h (0 Bft) NO 49 0 min 0,000 mm 0,0 UV-I 0 W/m 1,0 C 3,6 C 1,6 km/h (1 Bft) 96,00 %
06.03.2017 21:54 3,6 C 83 % 1000,5 hPa 0,0 l/m 0,0 km/h (0 Bft) NO 49 0 min 0,000 mm 0,0 UV-I 0 W/m 1,0 C 3,6 C 0,0 km/h (0 Bft) 92,11 %
06.03.2017 21:56 3,6 C 84 % 1000,5 hPa 0,0 l/m 0,0 km/h (0 Bft) NO 49 0 min 0,000 mm 0,0 UV-I 0 W/m 1,2 C 3,6 C 1,6 km/h (1 Bft) 93,62 %
06.03.2017 21:58 3,4 C 84 % 1000,5 hPa 0,0 l/m 0,4 km/h (0 Bft) NO 49 0 min 0,000 mm 0,0 UV-I 0 W/m 1,0 C 3,4 C 1,6 km/h (1 Bft) 92,68 %
06.03.2017 22:00 3,3 C 84 % 1000,6 hPa 0,0 l/m 0,2 km/h (0 Bft) NO 49 0 min 0,000 mm 0,0 UV-I 0 W/m 0,9 C 3,3 C 1,6 km/h (1 Bft) 94,92 %
06.03.2017 22:02 3,3 C 85 % 1000,6 hPa 0,0 l/m 0,0 km/h (0 Bft) NO 49 0 min 0,000 mm 0,0 UV-I 0 W/m 1,0 C 3,3 C 1,6 km/h (1 Bft) 97,56 %
06.03.2017 22:04 3,2 C 85 % 1000,7 hPa 0,0 l/m 2,2 km/h (1 Bft) NO 49 0 min 0,000 mm 0,0 UV-I 0 W/m 0,9 C 3,2 C 3,2 km/h (1 Bft) 94,00 %
06.03.2017 22:06 3,2 C 85 % 1000,7 hPa 0,0 l/m 2,9 km/h (1 Bft) NO 49 0 min 0,000 mm 0,0 UV-I 0 W/m 0,9 C 3,2 C 3,2 km/h (1 Bft) 98,11 %
06.03.2017 22:08 3,2 C 85 % 1000,7 hPa 0,0 l/m 3,4 km/h (1 Bft) O-SO 121 0 min 0,000 mm 0,0 UV-I 0 W/m 0,9 C 3,2 C 4,8 km/h (1 Bft) 97,56 %
06.03.2017 22:10 3,2 C 85 % 1000,7 hPa 0,0 l/m 3,2 km/h (1 Bft) S-SO 155 0 min 0,000 mm 0,0 UV-I 0 W/m 0,9 C 3,2 C 4,8 km/h (1 Bft) 96,23 %
06.03.2017 22:12 3,2 C 85 % 1000,8 hPa 0,0 l/m 1,5 km/h (1 Bft) S-SO 155 0 min 0,000 mm 0,0 UV-I 0 W/m 0,9 C 3,2 C 3,2 km/h (1 Bft) 94,87 %
06.03.2017 22:14 3,1 C 85 % 1000,8 hPa 0,0 l/m 2,1 km/h (1 Bft) S-SO 155 0 min 0,000 mm 0,0 UV-I 0 W/m 0,8 C 3,1 C 4,8 km/h (1 Bft) 95,74 %
06.03.2017 22:16 3,1 C 86 % 1000,9 hPa 0,0 l/m 3,7 km/h (1 Bft) S-SO 158 0 min 0,000 mm 0,0 UV-I 0 W/m 1,0 C 3,1 C 4,8 km/h (1 Bft) 96,00 %
06.03.2017 22:18 3,1 C 86 % 1001,0 hPa 0,0 l/m 5,0 km/h (1 Bft) S-SW 204 0 min 0,000 mm 0,0 UV-I 0 W/m 1,0 C 3,1 C 6,4 km/h (2 Bft) 97,14 %
06.03.2017 22:20 3,2 C 86 % 1001,0 hPa 0,0 l/m 5,5 km/h (1 Bft) SW 221 0 min 0,000 mm 0,0 UV-I 0 W/m 1,1 C 3,2 C 8,0 km/h (2 Bft) 98,15 %
06.03.2017 22:22 3,1 C 86 % 1001,2 hPa 0,0 l/m 5,6 km/h (1 Bft) W-SW 251 0 min 0,000 mm 0,0 UV-I 0 W/m 1,0 C 3,1 C 8,0 km/h (2 Bft) 100,00 %
06.03.2017 22:24 3,1 C 86 % 1001,2 hPa 0,0 l/m 4,5 km/h (1 Bft) SW 216 0 min 0,000 mm 0,0 UV-I 0 W/m 1,0 C 3,1 C 6,4 km/h (2 Bft) 98,00 %
06.03.2017 22:26 3,1 C 86 % 1001,1 hPa 0,0 l/m 4,5 km/h (1 Bft) S-SW 205 0 min 0,000 mm 0,0 UV-I 0 W/m 1,0 C 3,1 C 8,0 km/h (2 Bft) 96,88 %
06.03.2017 22:28 3,1 C 87 % 1001,1 hPa 0,0 l/m 4,5 km/h (1 Bft) S-SW 205 0 min 0,000 mm 0,0 UV-I 0 W/m 1,2 C 3,1 C 6,4 km/h (2 Bft) 96,43 %
06.03.2017 22:30 3,1 C 86 % 1001,1 hPa 0,0 l/m 3,7 km/h (1 Bft) S-SW 205 0 min 0,000 mm 0,0 UV-I 0 W/m 1,0 C 3,1 C 4,8 km/h (1 Bft) 98,11 %
06.03.2017 22:32 3,2 C 86 % 1001,1 hPa 0,0 l/m 4,0 km/h (1 Bft) S-SW 212 0 min 0,000 mm 0,0 UV-I 0 W/m 1,1 C 3,2 C 6,4 km/h (2 Bft) 100,00 %
06.03.2017 22:34 3,2 C 86 % 1001,1 hPa 0,0 l/m 3,6 km/h (1 Bft) S-SW 212 0 min 0,000 mm 0,0 UV-I 0 W/m 1,1 C 3,2 C 4,8 km/h (1 Bft) 100,00 %
06.03.2017 22:36 3,3 C 86 % 1001,2 hPa 0,0 l/m 3,7 km/h (1 Bft) S-SW 212 0 min 0,000 mm 0,0 UV-I 0 W/m 1,2 C 3,3 C 6,4 km/h (2 Bft) 98,00 %
06.03.2017 22:38 3,3 C 85 % 1001,2 hPa 0,0 l/m 5,2 km/h (1 Bft) SW 229 0 min 0,000 mm 0,0 UV-I 0 W/m 1,0 C 3,3 C 6,4 km/h (2 Bft) 97,37 %
06.03.2017 22:40 3,4 C 85 % 1001,2 hPa 0,0 l/m 3,9 km/h (1 Bft) SW 232 0 min 0,000 mm 0,0 UV-I 0 W/m 1,1 C 3,4 C 6,4 km/h (2 Bft) 98,00 %
06.03.2017 22:42 3,4 C 85 % 1001,3 hPa 0,0 l/m 4,4 km/h (1 Bft) SW 232 0 min 0,000 mm 0,0 UV-I 0 W/m 1,1 C 3,4 C 6,4 km/h (2 Bft) 96,00 %
06.03.2017 22:44 3,4 C 85 % 1001,3 hPa 0,0 l/m 4,8 km/h (1 Bft) SW 226 0 min 0,000 mm 0,0 UV-I 0 W/m 1,1 C 3,4 C 6,4 km/h (2 Bft) 100,00 %
06.03.2017 22:46 3,4 C 85 % 1001,3 hPa 0,0 l/m 3,9 km/h (1 Bft) SW 219 0 min 0,000 mm 0,0 UV-I 0 W/m 1,1 C 3,4 C 6,4 km/h (2 Bft) 97,87 %
06.03.2017 22:48 3,4 C 85 % 1001,4 hPa 0,0 l/m 4,3 km/h (1 Bft) SW 215 0 min 0,000 mm 0,0 UV-I 0 W/m 1,1 C 3,4 C 6,4 km/h (2 Bft) 100,00 %
06.03.2017 22:50 3,4 C 85 % 1001,4 hPa 0,0 l/m 4,5 km/h (1 Bft) SW 216 0 min 0,000 mm 0,0 UV-I 0 W/m 1,1 C 3,4 C 8,0 km/h (2 Bft) 95,74 %
06.03.2017 22:52 3,4 C 85 % 1001,4 hPa 0,0 l/m 6,4 km/h (2 Bft) S-SW 200 0 min 0,000 mm 0,0 UV-I 0 W/m 1,1 C 3,4 C 9,7 km/h (2 Bft) 96,23 %
06.03.2017 22:54 3,4 C 85 % 1001,5 hPa 0,0 l/m 5,9 km/h (2 Bft) S-SW 206 0 min 0,000 mm 0,0 UV-I 0 W/m 1,1 C 3,4 C 9,7 km/h (2 Bft) 100,00 %
06.03.2017 22:56 3,5 C 85 % 1001,6 hPa 0,0 l/m 6,8 km/h (2 Bft) SW 219 0 min 0,000 mm 0,0 UV-I 0 W/m 1,2 C 3,1 C 9,7 km/h (2 Bft) 97,78 %
06.03.2017 22:58 3,5 C 85 % 1001,6 hPa 0,0 l/m 6,8 km/h (2 Bft) SW 221 0 min 0,000 mm 0,0 UV-I 0 W/m 1,2 C 3,1 C 9,7 km/h (2 Bft) 97,73 %
06.03.2017 23:00 3,5 C 85 % 1001,7 hPa 0,0 l/m 6,5 km/h (2 Bft) SW 215 0 min 0,000 mm 0,0 UV-I 0 W/m 1,2 C 3,4 C 8,0 km/h (2 Bft) 98,11 %
06.03.2017 23:02 3,6 C 85 % 1001,7 hPa 0,0 l/m 6,6 km/h (2 Bft) S-SW 211 0 min 0,000 mm 0,0 UV-I 0 W/m 1,3 C 3,4 C 9,7 km/h (2 Bft) 97,87 %
06.03.2017 23:04 3,5 C 85 % 1001,7 hPa 0,0 l/m 6,1 km/h (2 Bft) S-SW 205 0 min 0,000 mm 0,0 UV-I 0 W/m 1,2 C 3,5 C 8,0 km/h (2 Bft) 100,00 %
06.03.2017 23:06 3,5 C 85 % 1001,7 hPa 0,0 l/m 4,1 km/h (1 Bft) S-SW 205 0 min 0,000 mm 0,0 UV-I 0 W/m 1,2 C 3,5 C 6,4 km/h (2 Bft) 98,11 %
06.03.2017 23:08 3,5 C 85 % 1001,7 hPa 0,0 l/m 5,2 km/h (1 Bft) S-SW 193 0 min 0,000 mm 0,0 UV-I 0 W/m 1,2 C 3,5 C 8,0 km/h (2 Bft) 100,00 %
06.03.2017 23:10 3,5 C 85 % 1001,7 hPa 0,0 l/m 4,8 km/h (1 Bft) S-SW 193 0 min 0,000 mm 0,0 UV-I 0 W/m 1,2 C 3,5 C 6,4 km/h (2 Bft) 96,00 %
06.03.2017 23:12 3,5 C 85 % 1001,7 hPa 0,0 l/m 4,7 km/h (1 Bft) S-SW 193 0 min 0,000 mm 0,0 UV-I 0 W/m 1,2 C 3,5 C 6,4 km/h (2 Bft) 100,00 %
06.03.2017 23:14 3,5 C 85 % 1001,7 hPa 0,0 l/m 6,0 km/h (2 Bft) SW 214 0 min 0,000 mm 0,0 UV-I 0 W/m 1,2 C 3,5 C 8,0 km/h (2 Bft) 97,37 %
06.03.2017 23:16 3,5 C 85 % 1001,7 hPa 0,0 l/m 7,0 km/h (2 Bft) SW 219 0 min 0,000 mm 0,0 UV-I 0 W/m 1,2 C 2,9 C 9,7 km/h (2 Bft) 96,23 %
06.03.2017 23:19 3,5 C 85 % 1001,8 hPa 0,0 l/m 6,2 km/h (2 Bft) S-SW 209 0 min 0,000 mm 0,0 UV-I 0 W/m 1,2 C 3,5 C 9,7 km/h (2 Bft) 98,65 %
06.03.2017 23:20 3,5 C 85 % 1001,8 hPa 0,0 l/m 5,8 km/h (2 Bft) S-SW 209 0 min 0,000 mm 0,0 UV-I 0 W/m 1,2 C 3,5 C 6,4 km/h (2 Bft) 100,00 %
06.03.2017 23:22 3,5 C 86 % 1001,9 hPa 0,0 l/m 6,6 km/h (2 Bft) S-SW 206 0 min 0,000 mm 0,0 UV-I 0 W/m 1,4 C 3,3 C 9,7 km/h (2 Bft) 98,00 %
06.03.2017 23:24 3,6 C 86 % 1001,9 hPa 0,0 l/m 7,4 km/h (2 Bft) S-SW 210 0 min 0,000 mm 0,0 UV-I 0 W/m 1,5 C 2,7 C 9,7 km/h (2 Bft) 95,12 %
06.03.2017 23:26 3,6 C 86 % 1002,0 hPa 0,0 l/m 7,4 km/h (2 Bft) S-SW 204 0 min 0,000 mm 0,0 UV-I 0 W/m 1,5 C 2,7 C 9,7 km/h (2 Bft) 97,56 %
06.03.2017 23:28 3,6 C 86 % 1002,0 hPa 0,0 l/m 4,8 km/h (1 Bft) SW 215 0 min 0,000 mm 0,0 UV-I 0 W/m 1,5 C 3,6 C 6,4 km/h (2 Bft) 98,00 %
06.03.2017 23:30 3,6 C 85 % 1002,0 hPa 0,0 l/m 6,5 km/h (2 Bft) S-SW 207 0 min 0,000 mm 0,0 UV-I 0 W/m 1,3 C 3,5 C 9,7 km/h (2 Bft) 97,62 %
06.03.2017 23:32 3,7 C 85 % 1002,0 hPa 0,0 l/m 5,9 km/h (2 Bft) S-SW 210 0 min 0,000 mm 0,0 UV-I 0 W/m 1,4 C 3,7 C 9,7 km/h (2 Bft) 100,00 %
06.03.2017 23:34 3,7 C 85 % 1002,0 hPa 0,0 l/m 5,2 km/h (1 Bft) S-SW 207 0 min 0,000 mm 0,0 UV-I 0 W/m 1,4 C 3,7 C 9,7 km/h (2 Bft) 100,00 %
06.03.2017 23:36 3,7 C 85 % 1002,1 hPa 0,0 l/m 5,3 km/h (1 Bft) S-SW 206 0 min 0,000 mm 0,0 UV-I 0 W/m 1,4 C 3,7 C 6,4 km/h (2 Bft) 97,87 %
06.03.2017 23:38 3,7 C 85 % 1002,1 hPa 0,0 l/m 4,4 km/h (1 Bft) S-SW 206 0 min 0,000 mm 0,0 UV-I 0 W/m 1,4 C 3,7 C 6,4 km/h (2 Bft) 98,11 %
06.03.2017 23:40 3,8 C 85 % 1002,1 hPa 0,0 l/m 4,3 km/h (1 Bft) S-SW 206 0 min 0,000 mm 0,0 UV-I 0 W/m 1,5 C 3,8 C 4,8 km/h (1 Bft) 94,74 %
06.03.2017 23:42 3,8 C 85 % 1002,1 hPa 0,0 l/m 4,4 km/h (1 Bft) S-SW 206 0 min 0,000 mm 0,0 UV-I 0 W/m 1,5 C 3,8 C 6,4 km/h (2 Bft) 92,86 %
06.03.2017 23:44 3,7 C 85 % 1002,1 hPa 0,0 l/m 5,2 km/h (1 Bft) SW 215 0 min 0,000 mm 0,0 UV-I 0 W/m 1,4 C 3,7 C 6,4 km/h (2 Bft) 95,12 %
06.03.2017 23:46 3,8 C 85 % 1002,1 hPa 0,0 l/m 4,6 km/h (1 Bft) SW 215 0 min 0,000 mm 0,0 UV-I 0 W/m 1,5 C 3,8 C 6,4 km/h (2 Bft) 96,23 %
06.03.2017 23:48 3,8 C 86 % 1002,2 hPa 0,0 l/m 4,0 km/h (1 Bft) SW 215 0 min 0,000 mm 0,0 UV-I 0 W/m 1,7 C 3,8 C 6,4 km/h (2 Bft) 97,37 %
06.03.2017 23:50 3,8 C 86 % 1002,2 hPa 0,0 l/m 4,1 km/h (1 Bft) S-SW 213 0 min 0,000 mm 0,0 UV-I 0 W/m 1,7 C 3,8 C 6,4 km/h (2 Bft) 95,74 %
06.03.2017 23:52 3,8 C 85 % 1002,2 hPa 0,0 l/m 4,2 km/h (1 Bft) S 182 0 min 0,000 mm 0,0 UV-I 0 W/m 1,5 C 3,8 C 6,4 km/h (2 Bft) 96,15 %
06.03.2017 23:54 3,9 C 85 % 1002,3 hPa 0,0 l/m 3,2 km/h (1 Bft) S 182 0 min 0,000 mm 0,0 UV-I 0 W/m 1,6 C 3,9 C 6,4 km/h (2 Bft) 93,85 %
06.03.2017 23:56 3,9 C 85 % 1002,3 hPa 0,0 l/m 4,2 km/h (1 Bft) S 183 0 min 0,000 mm 0,0 UV-I 0 W/m 1,6 C 3,9 C 6,4 km/h (2 Bft) 95,74 %
06.03.2017 23:58 3,9 C 85 % 1002,3 hPa 0,0 l/m 5,5 km/h (1 Bft) SW 225 0 min 0,000 mm 0,0 UV-I 0 W/m 1,6 C 3,9 C 8,0 km/h (2 Bft) 96,23 %
_ Min-Zeit 00:00 10:24 19:54 - 20:46 - - - - - - 10:24 00:02 21:54 06:24
Minimum _ 1,6 C 52 % 999,8 hPa - 0,0 km/h (0 Bft) - - - - - - -0,4 C -6,2 C 0,0 km/h (0 Bft) 83,33 %
_ Max-Zeit 13:48 00:00 07:48 00:52 11:20 - - 12:16 12:02 12:50 12:52 14:24 15:00 11:18 00:02
Maximum _ 10,1 C 93 % 1006,2 hPa 0,2 l/m 33,8 km/h
W-SW (5 Bft)
- - 4 min 0,280 mm 1,9 UV-I 772 W/m 4,0 C 10,0 C 46,7 km/h
W (6 Bft)
100,00 %
Durchschnitt _ 5,9 C 75 % 1003,3 hPa #0,4 l/m 10,4 km/h (2 Bft) W-SW - #5:44 h #1,981 mm 1,0 UV-I 257 W/m 1,6 C 2,8 C 16,0 km/h (3 Bft) 96,81 %